GFSMA_sfc_thetae_000.txt.gz
Theta_e
317 318 319 321 322 324 325 326 329 330 331 333 336 336 336 337 341 340 343 346 346 348 349 348 348 346 347 348 348 348 347 346 345 343 343 341 338 335 334 333 331 329 329
317 318 319 320 321 323 325 326 328 330 332 334 335 336 335 338 339 340 341 341 343 346 348 348 348 347 348 347 348 347 347 346 343 341 340 339 337 334 332 330 329 328 328
318 321 320 319 321 323 325 326 328 330 332 332 334 334 335 337 337 338 338 337 340 346 346 348 348 349 348 347 346 347 346 344 341 339 338 336 333 330 329 329 329 328 328
321 320 319 319 321 324 325 326 329 329 330 331 332 332 334 336 335 336 337 337 337 342 346 347 347 347 348 347 347 347 344 342 339 336 333 330 329 329 328 328 328 327 326
325 321 322 324 325 326 326 327 328 328 328 330 330 331 332 333 333 334 335 335 336 336 338 345 344 345 347 348 346 345 342 338 336 333 330 329 328 327 327 327 326 326 325
324 325 324 326 326 326 326 326 327 328 329 329 329 329 330 331 331 332 332 334 335 337 337 338 341 341 344 346 345 343 341 337 334 330 328 328 326 326 326 325 325 325 324
324 326 326 325 328 326 327 327 327 327 327 330 326 326 328 329 330 330 331 332 334 334 334 335 338 337 340 342 343 342 340 337 332 328 328 329 326 325 325 324 324 324 323
326 326 327 327 327 327 327 327 326 325 327 328 324 323 318 322 326 328 330 330 331 333 332 333 335 337 340 339 341 341 339 336 331 327 326 328 326 324 324 324 324 323 322
327 326 327 327 326 327 326 326 327 327 324 327 327 323 317 316 318 323 324 326 327 329 330 331 333 335 334 340 340 341 339 335 330 326 325 326 326 324 323 323 323 322 322
327 327 326 326 326 327 325 326 327 327 326 322 325 327 326 324 315 313 317 319 322 324 325 327 331 331 334 336 338 338 336 336 331 328 327 326 327 325 324 323 322 322 322
327 328 327 327 327 326 326 326 326 326 327 324 324 323 323 322 321 318 312 313 315 317 323 326 327 325 324 327 334 335 333 333 332 332 331 329 326 325 324 322 321 321 321
326 328 327 327 327 326 327 326 326 326 325 326 325 324 322 320 319 316 315 310 311 310 315 319 323 323 322 325 331 331 326 324 322 322 325 326 325 322 321 320 320 319 319
325 325 326 326 326 327 327 327 325 325 326 324 323 322 323 322 321 319 313 307 308 306 308 312 318 320 315 318 329 328 326 322 318 318 319 320 321 322 320 318 317 317 318
323 325 326 326 326 327 327 328 326 325 325 323 322 323 323 323 323 319 313 305 299 303 306 311 312 315 315 315 316 323 323 320 317 316 316 316 317 317 318 318 317 316 312
325 324 323 322 324 326 327 326 326 324 326 325 325 324 324 322 322 315 312 311 308 304 303 308 309 312 314 318 318 320 316 319 318 315 314 314 314 313 314 315 317 313 309
318 317 316 317 317 319 322 323 322 324 323 322 323 321 321 320 318 315 311 311 311 306 302 305 307 310 315 318 321 319 317 319 317 314 313 312 311 311 313 313 313 311 307
317 316 317 317 318 318 320 319 318 321 319 319 320 320 318 317 313 309 312 310 309 309 308 311 314 314 316 318 316 317 317 317 314 313 312 310 308 309 311 311 307 308 307
316 317 318 317 316 316 317 318 317 317 316 317 316 316 313 312 312 312 314 313 312 312 312 312 310 306 308 307 310 312 310 308 309 312 310 308 307 307 308 309 306 305 304
315 316 316 314 313 313 313 313 313 313 313 313 315 315 313 314 312 313 314 314 313 314 315 311 305 302 304 304 306 307 307 309 308 310 308 307 306 306 305 306 305 302 301
313 314 314 313 312 311 311 310 309 308 309 309 311 312 312 314 314 313 313 314 314 314 311 306 303 301 303 302 304 305 304 303 303 305 303 303 303 304 304 304 304 302 300
312 313 312 310 310 310 308 308 308 308 308 307 307 308 309 311 310 311 311 313 314 310 307 305 302 301 301 302 304 302 302 300 302 302 300 298 297 298 300 302 304 304 300
309 311 311 310 310 308 300 302 305 305 305 306 306 304 306 307 306 304 305 305 307 310 307 304 301 303 302 301 300 301 299 299 298 301 300 298 296 296 298 300 301 301 302
307 308 309 309 309 307 298 298 300 302 302 302 302 301 302 302 304 305 303 302 301 301 304 308 306 305 303 303 302 298 298 298 300 299 299 297 296 295 297 298 299 300 299
305 305 306 307 308 306 297 296 297 299 298 297 298 298 301 301 301 303 303 302 301 301 303 303 308 309 307 304 304 302 300 299 298 297 298 297 296 295 296 298 297 298 297
302 302 304 304 306 306 297 295 297 297 297 297 297 297 297 298 295 294 301 300 299 297 295 295 295 294 293 294 298 298 297 297 297 297 296 297 295 295 295 297 299 296 296
304 303 303 303 302 306 296 295 298 299 298 298 301 301 297 295 293 292 299 299 299 299 295 294 296 296 296 296 296 302 299 297 296 295 298 296 293 294 293 296 298 298 297

GFSMA_sfc_thetae_003.txt.gz
Theta_e
325 325 325 328 329 329 331 333 336 336 337 338 339 343 342 345 347 349 349 345 344 348 350 347 348 348 347 348 348 347 347 347 346 345 343 341 338 335 334 332 331 330 330
328 327 325 325 327 329 332 336 337 336 335 337 338 342 341 345 346 348 349 344 346 345 349 349 349 347 347 347 348 347 346 346 343 342 340 338 337 333 331 331 330 330 330
328 328 329 328 328 332 334 335 334 335 334 338 336 340 343 343 345 345 342 345 343 346 345 349 350 349 348 346 347 346 346 344 341 340 339 337 335 331 330 330 330 329 329
330 330 329 331 330 331 332 332 330 330 332 334 334 338 342 343 341 342 341 341 340 341 346 348 348 348 349 347 348 347 345 342 340 338 335 332 330 330 330 330 329 328 328
332 331 329 330 332 330 331 332 332 331 331 333 333 339 339 341 342 335 337 337 338 338 339 344 346 347 347 348 347 347 343 339 337 334 331 330 329 329 329 328 327 327 327
331 332 330 328 329 330 330 331 332 332 333 333 334 333 334 336 334 335 339 339 337 338 338 344 348 344 345 347 347 344 341 337 333 331 330 330 328 328 327 327 326 325 325
329 332 332 332 332 327 329 332 332 332 333 336 329 328 329 331 333 334 335 334 335 335 336 337 338 338 340 343 343 341 339 336 332 329 331 330 328 327 327 326 325 325 325
329 330 330 329 331 330 330 332 333 332 332 335 326 324 319 323 328 333 333 333 333 335 334 335 339 338 338 338 341 340 338 334 331 329 328 330 327 326 326 325 325 324 323
328 331 330 332 332 333 332 333 335 332 326 332 335 328 319 316 321 327 329 331 332 333 335 336 337 336 337 337 340 341 337 333 330 327 327 326 326 326 326 325 324 323 323
328 328 328 328 328 331 333 333 336 332 329 326 333 330 329 328 318 315 320 324 328 329 331 334 336 338 337 340 341 339 334 332 330 328 329 329 328 325 325 324 323 322 321
333 331 329 331 329 328 329 333 331 329 331 330 325 327 327 328 325 324 314 316 317 322 327 332 336 339 341 342 341 335 333 332 331 331 331 331 327 326 325 324 322 322 322
332 333 332 332 330 332 330 333 335 335 334 334 333 328 326 324 322 322 317 316 314 314 323 331 331 330 334 337 337 331 328 327 325 327 328 328 328 325 323 322 321 320 320
327 328 329 329 327 330 331 331 329 335 334 330 331 329 331 328 330 324 319 311 313 312 315 326 329 327 329 335 333 329 325 321 320 320 322 323 324 324 323 320 319 320 319
327 327 329 329 329 328 332 335 336 335 335 332 331 330 327 325 323 322 317 310 306 311 311 320 327 325 325 330 329 327 326 319 318 317 317 318 320 320 321 320 319 316 311
329 330 326 329 333 332 330 329 333 332 327 326 326 326 325 324 323 317 316 318 317 312 310 316 319 321 323 323 324 325 325 319 319 316 315 315 316 315 316 318 315 312 310
325 324 322 323 330 332 328 329 331 333 328 331 329 329 327 326 322 322 316 316 321 315 310 316 315 320 323 323 324 324 323 320 317 315 314 313 313 314 314 315 311 311 307
325 322 323 323 324 328 326 326 329 331 330 330 332 330 329 330 328 324 321 318 317 316 311 315 317 324 326 326 326 327 325 326 318 314 313 311 310 312 312 310 310 309 306
327 326 326 326 324 325 325 323 326 329 330 329 328 329 328 327 328 326 322 321 318 320 314 315 319 319 321 322 324 323 319 318 316 310 310 309 309 310 308 305 305 307 304
325 325 325 325 324 324 324 324 325 325 329 329 329 329 327 328 325 323 323 319 320 319 321 317 315 316 316 317 318 316 315 315 311 308 308 308 308 308 309 306 304 303 302
324 324 323 322 321 322 323 322 322 321 321 324 326 326 326 327 326 325 323 323 322 321 321 317 315 314 315 314 318 313 310 312 310 307 305 306 305 305 305 306 303 302 300
324 323 322 322 322 321 319 322 323 323 321 320 321 319 320 317 314 317 323 324 324 320 318 317 316 315 313 312 314 315 313 310 310 310 306 304 303 304 305 304 304 303 300
323 323 323 322 322 316 301 305 319 323 323 322 320 319 318 314 309 306 309 311 321 324 322 318 317 316 318 316 315 313 313 308 307 311 307 304 303 302 304 305 304 302 301
323 322 322 322 322 319 299 300 306 323 323 322 321 319 314 312 315 316 304 303 303 303 309 324 322 320 320 318 317 314 313 312 312 311 308 305 303 301 303 302 301 301 301
322 322 321 322 322 318 298 297 302 318 318 316 317 317 318 316 313 315 317 317 316 316 317 316 322 324 322 322 318 318 316 314 312 309 309 304 307 301 303 303 299 300 299
318 319 320 320 321 319 297 295 305 314 312 310 309 309 311 310 297 296 314 314 313 312 297 296 296 294 295 297 307 311 309 307 306 306 307 305 306 304 303 302 303 298 298
318 316 316 318 312 319 296 294 304 310 310 306 307 307 296 304 294 294 311 311 309 311 308 305 307 303 298 303 297 312 311 305 304 303 308 302 303 303 300 303 303 303 301

GFSMA_sfc_thetae_006.txt.gz
Theta_e
330 328 328 329 330 332 334 335 334 336 339 339 337 337 340 346 349 351 353 347 345 344 344 345 345 347 348 348 348 348 348 347 346 345 343 341 337 336 334 332 331 331 331
331 331 328 330 334 331 331 333 333 335 337 336 335 337 342 344 347 349 350 345 342 339 344 345 346 347 347 347 348 348 347 346 344 342 340 338 335 333 332 331 331 331 331
334 332 330 327 329 335 335 334 336 337 336 335 335 337 342 345 346 347 350 344 342 343 343 340 347 348 348 347 346 346 346 344 341 340 339 337 333 332 331 331 331 331 330
334 334 334 334 336 335 334 331 332 332 332 333 333 334 343 345 345 346 348 347 337 338 340 343 344 347 348 346 347 346 344 342 341 339 337 333 332 332 331 330 330 330 330
334 336 336 336 337 334 334 332 330 332 330 332 332 335 343 344 345 346 339 339 339 337 337 341 343 345 347 348 347 346 342 339 338 336 333 332 331 331 330 330 329 329 328
333 336 337 336 336 332 334 334 334 332 332 332 331 337 341 343 344 340 338 338 339 338 337 337 339 347 344 346 346 344 340 337 334 333 332 332 331 330 329 328 327 327 326
333 333 333 334 334 333 334 335 335 333 332 334 332 332 337 340 338 339 339 338 336 336 336 336 337 343 341 344 343 341 338 336 334 332 331 332 329 329 328 327 326 326 325
333 333 335 333 334 330 334 334 335 331 334 337 328 329 321 326 335 336 336 333 333 334 334 335 337 337 337 338 342 339 337 335 332 330 329 331 329 328 327 326 326 325 325
332 333 333 333 333 333 332 336 336 334 330 335 334 327 319 318 323 331 330 331 332 332 333 334 336 339 337 340 339 339 337 334 332 330 329 329 328 327 327 326 325 325 324
329 330 334 334 335 333 338 337 341 336 335 330 335 332 334 330 319 316 326 329 331 330 333 335 335 335 336 339 340 338 334 333 331 329 328 327 327 326 326 325 325 324 323
334 333 333 334 335 337 337 336 337 338 336 329 331 331 330 328 328 321 316 318 322 328 333 334 335 334 337 337 339 335 332 332 330 331 332 330 327 326 326 326 324 322 323
335 333 332 332 337 338 338 340 339 339 339 340 335 335 325 327 324 322 320 320 317 318 329 332 333 335 339 341 340 332 329 328 327 328 330 331 330 328 325 323 323 322 322
333 332 331 334 335 336 336 339 339 338 337 333 329 330 330 327 328 323 319 318 315 316 321 329 333 335 337 342 337 334 330 326 324 324 324 326 326 326 326 323 321 321 320
328 330 330 334 334 335 335 339 338 338 337 333 329 332 330 329 329 326 320 314 311 315 321 325 330 330 337 336 333 330 328 321 320 320 320 321 322 323 322 322 322 320 315
331 333 332 331 334 335 334 338 340 338 336 330 329 329 328 325 327 322 322 322 318 314 318 324 324 330 333 332 329 328 326 319 320 317 317 317 318 318 319 319 316 314 313
328 330 333 335 334 336 337 337 338 336 333 333 331 331 326 326 322 321 318 319 322 324 316 323 323 328 330 325 325 327 325 319 318 316 316 315 315 315 316 315 313 312 310
331 329 325 326 328 333 334 337 335 330 329 329 330 328 325 326 323 323 321 322 326 324 320 320 323 327 326 324 322 327 325 322 320 315 315 314 312 313 314 311 311 310 308
331 331 330 326 326 326 330 331 334 332 332 330 331 330 326 330 330 331 328 330 328 327 323 318 323 324 326 330 328 330 326 326 325 314 313 311 311 311 311 309 308 308 307
331 332 329 328 327 325 327 329 330 331 332 333 333 333 331 334 332 332 331 326 324 322 323 319 319 322 325 327 327 327 326 326 323 311 310 309 310 311 308 306 306 306 304
327 329 330 329 330 329 327 331 335 335 334 334 334 334 334 334 333 334 331 327 323 322 323 320 320 321 321 324 325 321 319 320 318 313 310 307 308 309 309 306 305 305 302
326 325 325 326 327 327 325 328 329 330 330 330 331 331 332 323 316 321 323 326 328 323 322 320 319 319 319 319 321 322 320 321 321 319 314 312 309 308 307 307 308 305 302
326 326 325 325 325 321 303 310 323 327 327 327 326 324 321 317 312 308 310 310 323 328 326 321 320 320 323 322 323 322 321 319 315 321 318 316 313 310 310 309 305 303 301
330 327 326 326 326 322 301 304 313 331 329 329 329 328 323 319 321 322 306 306 307 307 311 329 327 325 326 328 327 324 324 321 319 322 317 314 317 311 311 309 304 302 301
330 329 328 327 327 318 299 301 309 329 329 329 329 329 327 326 322 323 323 323 323 323 323 323 330 331 331 331 330 327 326 326 324 323 321 312 317 313 313 310 302 301 300
329 328 327 327 326 323 298 298 308 324 324 323 321 321 322 320 300 300 318 320 321 321 297 298 299 296 295 296 306 323 318 317 315 316 321 313 312 310 311 311 309 300 298
326 323 324 326 316 324 297 296 306 316 319 315 316 315 299 308 295 297 319 319 317 319 318 314 315 306 300 308 297 315 316 312 313 311 317 311 310 309 305 310 311 310 303

GFSMA_sfc_thetae_009.txt.gz
Theta_e
333 330 330 332 331 331 334 337 333 333 336 336 339 336 332 342 346 351 351 346 344 343 343 341 341 341 343 344 347 348 346 347 347 345 343 341 338 336 334 333 332 332 332
333 331 333 331 333 335 332 337 335 333 333 338 337 336 336 343 346 349 352 348 343 342 342 342 343 342 344 345 346 346 347 346 345 342 340 339 337 334 333 332 332 332 331
335 334 334 334 336 339 338 339 332 334 335 336 336 336 336 343 346 347 350 348 344 343 342 343 343 344 344 343 347 347 346 345 342 340 339 337 335 333 332 332 332 332 331
334 335 333 334 336 338 334 331 330 330 333 333 332 332 337 343 345 347 348 346 343 343 341 341 343 342 344 347 346 347 345 343 341 339 337 334 333 332 332 332 332 331 330
334 336 337 335 336 339 333 331 331 333 334 331 331 334 339 343 346 346 344 343 341 338 337 337 338 340 342 346 346 347 343 341 339 337 334 333 333 332 331 331 331 330 329
334 336 338 336 337 336 333 334 335 336 331 330 328 336 340 344 345 341 336 339 335 334 336 336 335 336 340 345 346 344 342 338 335 334 335 334 332 331 330 330 329 329 328
333 335 338 337 337 335 335 337 334 334 332 332 333 336 338 341 336 338 335 336 336 334 335 334 335 335 340 343 343 342 340 337 335 334 334 333 331 330 329 328 327 327 326
333 334 335 332 334 332 335 335 337 329 328 335 328 328 323 329 331 335 334 337 335 335 333 334 334 334 335 338 340 340 338 337 336 333 332 332 330 329 328 327 327 326 326
333 334 334 333 333 334 333 338 335 333 329 336 335 329 320 319 324 330 332 335 334 333 333 334 334 334 335 336 338 338 338 337 334 331 330 330 329 328 327 327 326 326 325
333 334 334 334 335 333 336 336 340 337 335 329 334 339 335 330 321 318 329 330 330 331 331 332 333 334 335 336 338 338 335 334 332 331 330 329 329 328 327 326 325 325 324
333 333 334 335 336 340 340 337 338 336 341 331 336 336 333 329 329 321 317 321 327 330 331 332 333 334 334 336 339 334 333 333 332 331 331 329 328 327 326 325 325 324 324
333 334 334 335 337 338 338 340 339 339 338 338 339 333 331 326 323 325 319 320 321 322 330 332 332 334 334 336 339 332 330 328 327 329 330 330 330 329 326 325 324 324 324
328 334 336 336 338 338 339 338 341 339 338 335 333 330 332 331 330 325 321 320 316 318 323 331 332 333 335 335 338 332 330 326 325 325 327 327 329 329 328 326 324 323 323
334 335 335 336 335 337 338 339 340 340 340 334 333 333 332 329 326 324 322 319 315 316 322 323 332 334 335 336 336 332 329 326 324 322 322 323 324 324 325 325 324 324 322
334 335 334 336 336 336 337 339 339 336 337 335 335 328 329 327 327 323 324 326 321 316 318 325 325 334 337 336 334 334 332 323 323 320 319 319 320 321 321 321 320 317 317
335 333 334 332 334 336 337 339 338 335 331 333 334 327 325 323 324 323 322 322 323 321 320 327 327 332 334 332 329 331 326 320 320 318 317 317 317 318 318 317 315 315 314
331 333 333 334 333 333 336 337 335 333 330 330 327 325 323 322 321 320 320 322 323 324 320 325 328 332 334 330 325 329 323 320 318 317 317 316 314 314 315 314 313 313 312
331 328 332 333 332 333 333 334 333 331 329 328 327 325 322 324 322 321 319 321 326 328 324 323 328 327 327 332 327 333 326 322 323 317 316 314 312 311 312 311 310 310 309
333 330 330 328 330 333 333 334 330 332 332 331 328 325 325 324 323 324 324 326 331 330 327 323 322 325 326 328 328 332 333 334 327 317 313 312 311 311 311 310 308 308 306
332 333 332 330 328 330 333 334 334 334 332 330 331 332 332 328 330 334 332 329 331 329 330 324 322 323 324 329 328 324 323 325 323 318 314 312 309 310 311 310 309 308 305
327 328 330 331 330 331 332 335 335 336 335 334 335 333 335 330 323 326 332 333 333 327 322 321 320 320 320 322 323 325 323 325 327 325 320 315 312 310 311 309 309 308 305
325 326 326 327 327 323 305 313 328 332 333 331 326 327 326 321 314 309 311 313 326 335 332 320 320 321 329 327 325 324 324 321 318 329 324 322 323 318 316 315 309 305 304
330 328 327 327 326 325 304 308 315 331 332 332 332 330 324 320 322 325 311 309 310 310 315 332 329 329 332 332 333 332 329 327 323 328 329 321 325 322 323 317 307 304 302
330 329 327 327 327 316 303 307 314 334 334 332 331 329 329 328 324 324 324 324 324 325 326 326 333 334 334 335 338 334 335 333 330 329 330 319 325 322 324 324 307 303 300
332 329 328 327 326 322 300 301 310 331 328 328 326 327 328 327 304 304 323 323 324 324 301 302 301 298 297 297 304 324 322 320 319 321 328 324 323 321 321 319 318 302 300
329 326 326 327 319 326 299 298 307 320 324 320 322 319 302 314 299 299 324 323 321 323 321 316 318 314 304 312 299 313 317 313 314 315 324 319 316 319 313 318 316 307 304

GFSMA_sfc_thetae_012.txt.gz
Theta_e
331 331 331 331 331 330 331 330 331 332 328 333 334 337 334 336 342 342 343 346 345 344 344 344 343 340 340 341 345 348 348 347 347 345 343 341 339 337 335 334 333 333 332
331 332 332 331 330 330 332 331 331 331 332 334 335 336 336 338 342 342 342 342 344 343 343 342 342 341 344 342 343 347 345 346 345 342 340 340 337 334 333 333 333 333 332
332 334 331 331 330 330 331 331 331 332 332 335 335 335 335 337 340 341 342 340 341 343 343 341 343 343 344 344 344 345 346 345 342 341 339 338 336 335 333 333 333 333 331
334 333 330 331 332 332 328 330 330 330 330 332 332 333 334 338 340 342 341 340 338 339 341 341 341 341 343 342 342 345 345 343 341 339 337 335 334 333 333 333 332 331 330
334 334 330 332 333 330 329 330 328 328 330 330 332 331 335 336 340 342 339 339 338 337 337 340 338 341 342 343 343 346 344 341 340 338 335 334 334 333 332 332 332 330 329
333 335 332 331 333 329 328 328 328 330 330 330 330 331 334 336 340 336 337 338 337 335 334 336 335 337 339 340 342 345 343 340 337 335 336 335 333 332 332 331 331 330 328
332 334 332 329 333 330 328 329 329 328 328 330 327 327 331 336 334 333 335 332 332 333 333 333 333 334 335 339 341 344 342 339 337 335 336 334 333 331 331 330 329 328 327
333 335 332 330 332 331 330 329 329 326 327 328 326 324 320 325 329 331 332 330 330 332 331 332 333 333 334 333 338 342 340 338 337 335 334 333 332 330 329 328 327 327 327
333 334 334 331 331 333 331 329 330 327 325 327 329 326 319 317 323 328 329 330 330 330 330 331 332 332 333 334 337 338 339 338 337 335 333 331 330 329 328 327 327 327 326
333 333 334 332 332 332 331 331 330 327 325 324 330 332 330 325 319 318 327 328 330 330 329 330 331 332 334 334 336 337 336 337 335 333 331 331 330 329 328 327 327 328 326
334 333 333 334 332 332 332 333 330 329 327 327 328 328 328 327 325 320 316 322 327 329 330 331 331 332 334 333 334 334 333 333 332 332 332 331 329 328 327 327 326 325 324
332 334 333 335 335 332 334 336 333 330 330 331 331 329 327 323 321 321 320 320 321 326 330 331 331 331 331 333 336 332 330 329 328 328 329 330 331 331 328 327 325 323 323
330 332 333 335 336 336 336 336 334 332 330 331 330 331 330 327 326 325 322 319 316 321 325 330 331 331 332 333 335 331 330 326 325 325 325 327 328 329 329 329 326 325 323
332 333 334 331 334 335 335 335 332 333 334 332 331 331 329 327 327 325 322 319 316 317 322 324 331 331 331 333 334 331 327 324 323 322 323 324 325 326 326 326 326 325 326
333 332 333 333 334 334 333 333 331 331 332 331 331 328 327 326 325 325 324 323 320 315 316 323 323 330 331 333 331 329 326 325 324 321 320 320 321 321 322 322 321 322 321
331 328 329 331 334 333 333 334 332 333 331 328 327 326 324 324 325 324 324 323 324 321 316 324 325 329 332 334 332 330 328 324 323 320 319 318 318 318 318 318 318 318 317
331 331 329 330 332 333 333 333 330 330 330 328 326 323 322 324 323 322 324 323 323 322 319 323 326 330 328 327 328 328 324 321 318 318 318 317 315 315 315 315 315 315 315
331 331 332 331 332 331 333 330 329 330 327 326 325 323 322 323 321 321 323 321 322 322 322 320 322 326 325 323 322 323 319 316 315 317 316 315 313 313 312 312 312 311 311
330 331 331 331 331 331 330 331 330 329 328 326 324 322 321 321 321 321 321 320 320 325 324 322 321 321 321 318 318 323 323 321 319 319 314 314 312 312 311 310 310 309 307
329 329 331 330 331 332 332 331 331 330 329 326 326 324 323 323 323 323 322 322 326 324 323 321 321 318 319 322 318 320 321 322 320 316 315 312 311 311 311 310 310 310 306
331 329 329 332 332 333 333 331 331 329 327 326 326 326 325 324 323 324 327 325 327 322 321 319 317 318 319 319 319 321 318 319 319 321 311 308 306 305 305 309 309 312 308
329 328 327 327 326 320 307 316 329 331 330 329 328 326 323 318 316 314 316 314 320 320 319 318 318 316 316 319 319 319 319 316 314 322 317 315 308 306 305 306 307 305 305
332 327 326 325 324 318 305 308 317 329 326 325 325 324 324 324 321 319 309 310 310 309 315 328 321 320 321 323 322 321 319 318 319 320 317 314 318 316 316 314 308 305 303
332 329 326 325 323 312 305 306 317 330 330 328 328 325 320 324 319 323 323 322 322 322 322 325 326 324 319 317 323 325 324 323 323 323 322 316 318 318 319 319 311 305 303
332 331 328 326 322 318 304 304 319 329 329 327 324 323 328 322 304 304 323 321 321 316 303 302 300 299 298 298 302 317 316 315 313 315 319 318 316 314 316 317 317 305 301
332 328 328 328 319 322 300 300 307 326 325 323 321 312 305 314 300 301 320 321 318 319 311 307 309 304 301 306 300 309 310 307 305 304 308 305 303 302 301 307 304 304 303

GFSMA_sfc_thetae_015.txt.gz
Theta_e
323 322 323 323 322 323 325 324 325 326 325 325 325 331 329 330 336 338 338 347 346 345 346 345 344 342 341 343 342 344 346 347 347 346 343 342 340 338 337 335 334 333 333
322 322 322 322 322 322 324 324 325 326 325 323 326 331 331 333 336 337 339 343 345 345 345 345 343 343 344 343 341 343 346 345 345 343 341 340 338 335 335 334 334 333 332
323 322 323 323 322 322 323 324 324 325 325 327 327 329 330 333 334 337 339 340 341 345 344 343 344 343 341 342 343 344 345 345 343 341 340 338 337 336 334 334 333 333 331
325 323 323 324 323 322 322 323 323 324 326 326 325 324 329 331 334 334 339 339 339 338 341 342 341 340 342 343 343 345 346 343 342 340 338 336 334 335 334 333 333 331 330
327 324 323 324 323 323 321 323 322 323 322 323 324 324 328 328 331 334 337 337 337 337 337 341 341 341 342 342 343 345 344 342 340 338 336 335 334 334 333 333 332 330 329
326 325 324 323 323 321 321 321 321 322 322 321 327 327 329 328 329 332 336 337 337 336 336 335 336 337 340 340 342 344 344 340 337 336 337 336 334 333 333 332 331 329 328
326 324 324 323 324 320 320 321 320 322 321 321 320 321 325 330 330 333 336 335 334 334 335 333 335 336 335 338 339 343 344 340 338 336 336 335 334 333 332 331 330 329 328
326 325 325 323 323 322 323 321 320 318 319 322 319 319 318 323 327 329 331 331 331 332 332 332 333 332 333 333 335 343 341 339 338 336 335 334 333 332 331 330 329 328 327
327 326 325 323 323 323 322 321 320 319 318 322 322 321 317 315 321 327 327 329 329 329 330 331 331 332 333 333 336 340 340 339 338 336 334 333 331 330 329 328 328 327 327
327 327 325 324 323 322 322 323 323 320 320 319 321 326 322 322 318 318 325 326 328 327 328 329 330 331 332 333 336 337 336 337 337 335 333 332 331 330 329 328 327 327 327
327 328 326 324 323 323 323 325 322 321 322 323 320 320 321 321 323 321 317 321 326 327 327 328 329 331 332 332 332 334 334 334 333 333 333 332 331 330 328 328 327 327 325
326 327 327 325 323 323 324 325 323 322 318 322 322 322 321 320 321 320 319 320 321 323 327 329 329 331 333 332 334 332 330 329 328 328 329 331 331 331 329 328 327 326 325
323 324 325 324 325 323 326 325 323 324 323 323 322 322 322 324 325 323 321 319 319 323 326 329 330 331 332 332 332 331 330 326 324 324 325 326 328 330 330 329 328 326 325
324 326 326 326 326 327 327 326 324 324 325 326 324 322 324 323 325 324 322 320 317 318 322 324 329 330 331 332 331 330 327 324 322 321 321 322 324 326 327 327 326 327 326
328 326 328 326 326 326 326 326 326 327 327 325 325 324 325 323 323 324 325 324 320 315 317 323 324 329 331 332 330 326 324 324 323 321 320 321 321 322 322 322 322 322 323
323 325 328 327 327 327 328 328 327 325 326 326 325 324 324 324 323 324 325 325 323 320 317 323 323 327 330 332 331 326 324 324 322 320 319 318 318 318 318 318 318 319 320
326 328 328 326 327 328 328 327 326 324 323 323 323 323 323 324 324 324 325 325 323 323 319 321 326 327 327 328 328 328 326 322 321 319 319 317 315 315 315 315 315 317 317
326 327 328 328 328 326 325 325 325 325 323 320 320 323 322 323 323 324 325 323 322 322 322 319 323 324 323 324 325 320 321 323 318 319 318 316 314 312 312 312 312 312 312
324 326 327 327 328 328 327 327 327 325 323 323 322 322 322 322 322 323 323 322 322 325 322 320 318 320 318 316 317 318 313 311 314 317 315 314 313 311 311 311 310 310 308
325 325 326 328 328 329 329 328 327 325 324 323 323 323 322 323 322 322 323 320 320 320 322 319 316 314 314 313 311 311 315 317 317 316 315 312 312 312 311 310 310 310 307
325 326 325 327 328 329 330 328 328 326 324 323 323 324 324 323 322 322 322 319 320 319 318 315 313 312 311 312 309 311 314 314 315 312 308 307 306 306 308 310 311 312 308
322 322 321 319 320 324 309 315 324 325 325 324 323 323 322 321 319 317 316 316 320 317 313 313 312 312 312 314 314 315 314 311 310 316 311 307 306 303 305 304 307 306 305
318 318 318 317 312 311 308 311 316 328 326 324 323 322 324 325 320 321 309 308 310 311 314 314 313 313 311 315 315 312 311 312 312 316 313 310 309 306 307 308 305 304 303
317 317 317 315 311 307 303 307 312 322 320 321 321 321 321 318 317 315 315 316 316 315 316 323 318 315 315 316 318 318 316 315 315 316 315 311 312 311 314 314 307 304 303
318 316 315 314 311 307 304 308 319 320 319 319 318 316 318 314 305 308 316 314 313 308 302 302 302 299 298 302 308 313 311 308 304 305 304 303 302 300 302 304 306 303 301
320 319 316 313 311 308 300 302 315 320 314 312 308 311 309 308 300 307 314 314 311 309 305 304 303 299 298 299 301 305 307 301 300 298 304 301 300 300 299 303 305 304 304

GFSMA_sfc_thetae_021.txt.gz
Theta_e
319 319 320 320 319 318 319 320 322 324 325 324 324 323 324 327 329 334 336 343 346 345 346 348 347 345 345 345 344 343 341 341 343 345 344 344 343 341 339 337 336 335 334
320 320 322 319 318 319 318 320 321 321 322 322 322 323 324 327 328 331 335 336 344 345 345 346 347 346 345 344 343 342 340 340 343 344 344 342 341 337 336 335 334 334 333
320 320 319 318 318 319 319 318 320 320 319 321 321 322 324 326 328 330 332 335 337 345 344 345 345 345 344 343 341 340 339 340 343 342 341 340 338 336 335 335 334 333 332
322 319 318 317 319 319 318 317 318 318 319 319 319 320 322 325 328 330 332 334 335 336 342 345 344 344 343 341 342 339 338 339 340 341 339 338 336 336 335 334 333 332 331
324 319 319 319 320 319 317 317 316 317 317 321 320 320 320 323 327 333 334 333 333 335 337 342 344 343 342 341 341 339 339 340 340 340 338 337 336 335 334 333 332 331 330
324 320 320 320 320 317 316 316 316 318 321 322 322 319 319 321 328 330 330 332 333 334 334 336 338 338 341 340 339 340 341 342 339 338 338 337 336 334 333 332 331 330 329
322 319 319 320 319 317 316 317 316 317 320 319 319 315 321 320 325 328 330 330 332 333 334 335 336 336 337 340 338 341 342 340 339 337 337 336 336 334 333 331 330 329 328
324 322 321 319 318 316 316 316 316 315 319 321 315 313 311 315 321 326 332 331 331 332 332 334 335 335 335 334 336 340 342 340 339 337 336 336 336 333 333 331 330 329 328
327 324 322 320 317 316 315 315 317 317 316 316 317 314 310 308 319 325 327 331 331 330 331 331 333 334 334 333 335 337 337 338 337 336 335 335 334 333 332 331 330 328 327
326 324 322 320 318 317 316 316 318 318 317 315 317 322 318 321 313 315 324 327 329 328 329 330 330 331 333 332 336 336 335 337 336 334 334 335 334 333 332 330 329 328 327
323 324 321 319 318 317 317 318 317 317 317 317 318 318 320 321 321 319 315 319 326 328 328 329 329 329 331 332 333 333 333 334 334 334 335 334 333 332 330 329 328 327 327
320 321 322 319 319 318 317 318 317 317 318 318 319 319 319 318 316 316 317 318 319 323 326 328 328 329 330 331 335 333 331 330 329 329 331 332 333 332 330 328 328 327 326
318 318 319 319 317 318 319 318 317 317 318 318 318 320 317 318 318 321 320 318 318 321 323 327 328 329 330 331 333 333 331 326 325 325 326 327 330 330 330 330 328 327 326
318 319 320 320 320 321 320 317 316 316 318 318 319 320 319 320 323 323 321 319 316 318 321 323 328 329 330 331 332 331 328 325 323 322 321 323 325 327 328 328 328 328 327
323 321 320 320 321 321 319 318 317 318 318 318 317 318 319 319 322 323 323 322 318 314 316 322 323 329 330 330 330 327 325 324 324 320 319 320 321 323 323 323 323 323 323
320 320 320 320 321 320 320 320 323 324 323 324 320 319 321 320 323 323 322 322 321 320 316 322 325 328 329 329 330 326 325 324 321 320 320 318 318 319 319 319 319 320 321
321 321 321 320 320 321 322 324 322 323 322 323 323 322 321 321 322 322 323 323 323 323 319 323 326 328 327 327 327 326 325 323 322 321 319 318 316 316 316 316 316 317 318
322 323 323 322 322 321 323 323 321 319 320 322 323 322 322 323 321 321 324 323 323 324 322 320 324 325 326 327 325 323 324 324 319 319 318 317 315 314 313 313 312 313 312
321 323 323 322 322 321 321 322 323 322 322 322 323 323 323 324 322 322 324 323 324 324 324 322 321 322 321 323 321 317 318 317 319 321 316 315 314 314 313 312 311 310 308
322 322 323 323 324 323 323 322 322 321 321 322 322 324 324 324 323 323 323 323 323 322 322 321 319 317 317 316 318 317 314 311 311 314 314 314 314 314 313 312 312 312 308
323 325 326 326 326 325 324 322 321 321 320 321 322 323 324 323 320 320 323 322 322 320 319 317 315 313 312 311 314 312 312 309 311 312 311 310 309 308 308 309 311 311 308
321 324 326 326 325 325 307 312 319 321 322 321 321 322 322 319 316 313 314 315 319 318 316 315 312 310 309 309 307 308 307 307 307 311 310 310 308 308 307 306 307 305 304
316 318 321 323 321 320 305 307 312 323 322 322 322 322 324 322 320 321 312 312 310 310 312 316 314 312 309 310 308 306 306 307 309 311 311 309 308 305 307 305 304 303 302
312 313 315 319 320 315 303 304 310 324 323 323 322 322 323 322 320 320 319 314 314 313 314 316 315 314 312 311 312 312 311 310 309 304 306 305 300 299 301 304 303 301 300
311 311 312 315 316 313 300 303 317 323 322 321 322 322 323 320 305 305 314 311 310 308 302 304 301 300 300 305 310 315 310 309 303 301 302 300 298 301 302 300 302 301 299
311 312 312 313 309 312 300 302 314 319 317 318 319 318 310 315 300 301 312 309 309 307 307 305 303 299 300 300 302 307 308 301 297 298 301 302 300 298 297 298 298 297 295

GFSMA_sfc_thetae_024.txt.gz
Theta_e
320 321 321 322 322 322 321 322 324 326 327 328 328 327 328 328 331 333 336 337 342 344 346 349 349 348 346 345 343 343 343 341 340 343 345 345 345 344 343 341 340 337 336
321 321 321 322 321 321 322 321 323 325 326 327 326 327 327 328 330 332 335 334 341 343 346 347 347 348 346 345 343 342 342 340 341 342 343 343 342 341 339 338 336 335 334
322 322 321 321 321 322 322 321 322 324 324 324 325 325 326 327 329 331 334 335 339 342 344 346 346 347 346 344 343 342 341 338 340 341 341 341 340 338 336 335 335 334 333
324 322 321 320 321 321 321 321 321 321 322 323 324 324 325 327 329 330 333 336 338 341 343 344 346 345 345 345 344 342 340 340 339 340 340 339 339 337 337 335 334 333 332
326 322 321 321 321 321 320 320 319 321 320 321 323 324 324 326 329 332 333 334 337 339 342 343 343 343 344 343 343 342 341 339 338 339 340 339 337 337 336 333 333 331 330
326 322 321 322 322 320 319 319 319 321 322 323 325 322 324 326 328 331 330 332 337 337 338 339 342 340 343 343 342 342 343 339 339 338 339 338 337 335 333 333 331 331 329
325 322 321 322 322 320 319 319 320 321 321 323 319 320 322 323 325 329 334 332 333 335 336 338 339 340 339 341 340 340 340 340 339 338 338 337 337 334 333 332 331 330 329
325 322 320 322 321 319 318 319 320 319 321 322 318 318 316 320 325 328 331 332 331 335 334 336 337 338 337 336 336 338 338 340 340 338 337 336 336 334 332 331 330 329 328
326 326 324 322 321 319 318 318 320 321 319 321 321 319 314 312 320 327 328 330 330 331 331 334 335 336 336 333 336 337 339 338 337 337 336 335 335 334 332 331 330 329 328
326 326 324 323 320 319 318 319 320 321 322 318 322 324 322 323 316 316 326 327 330 329 329 331 333 334 333 332 336 337 335 335 335 334 333 335 335 334 332 331 330 329 327
325 325 323 321 320 319 319 320 320 321 322 321 321 322 322 323 323 319 317 321 326 328 329 329 330 332 330 332 333 332 333 333 332 333 334 335 334 333 332 331 329 328 327
323 324 323 321 321 320 320 321 321 321 321 323 323 321 323 323 320 321 319 320 320 323 327 328 329 330 330 332 332 332 331 329 329 330 332 333 334 333 331 330 329 328 328
321 322 321 321 321 321 321 321 321 321 322 323 323 322 321 323 322 324 322 320 319 321 324 327 328 329 331 329 331 333 331 327 325 325 326 328 330 331 331 331 329 329 327
321 322 322 322 322 322 321 321 321 321 323 323 323 323 323 325 326 325 321 319 316 318 321 323 328 328 329 330 331 331 329 325 323 322 322 324 326 327 328 328 328 328 328
324 322 323 323 323 322 321 321 320 321 322 322 322 323 323 324 326 325 325 321 317 315 316 322 323 328 330 330 331 329 328 324 323 321 320 321 322 323 324 324 324 324 324
323 323 322 323 323 322 321 322 323 323 323 322 322 323 324 324 324 325 324 324 323 320 316 323 324 326 328 329 330 327 326 325 322 320 321 319 318 319 320 320 320 321 321
323 323 322 323 322 322 324 324 324 325 324 323 323 323 323 324 324 324 326 326 324 324 319 323 325 327 326 326 326 326 326 324 323 320 320 318 316 316 317 317 317 318 318
324 323 323 323 322 321 324 323 322 322 322 322 323 324 323 324 323 325 325 326 324 326 323 320 324 324 325 325 324 324 325 326 325 321 318 317 315 315 314 314 313 313 311
324 324 324 323 322 322 323 323 323 322 323 324 324 324 324 325 324 325 325 324 325 325 324 323 321 325 325 325 322 321 321 321 322 322 316 316 314 314 313 312 311 310 308
323 323 324 324 322 323 323 323 323 323 323 323 324 325 325 324 323 324 324 324 324 323 324 322 321 321 320 321 321 317 316 320 320 318 316 314 313 313 312 311 312 312 308
325 324 325 325 324 323 323 322 322 322 322 322 324 324 326 324 320 322 324 323 323 322 321 320 317 317 315 319 321 319 318 317 317 318 318 315 316 315 312 311 310 308 305
325 326 325 325 324 324 306 310 319 322 322 322 322 322 321 318 315 312 313 313 318 320 318 317 315 316 315 318 316 318 315 314 313 317 318 312 313 309 309 308 305 303 302
321 323 323 324 322 318 304 305 311 323 322 322 322 323 323 320 320 320 311 311 312 312 315 320 319 319 316 316 317 313 313 314 316 315 319 309 310 307 307 304 302 301 300
318 320 321 322 321 314 302 303 309 324 324 323 324 324 322 322 320 321 320 318 317 318 320 321 324 320 321 317 318 317 317 315 311 309 317 309 307 305 307 304 301 300 298
315 316 319 320 320 312 301 303 316 323 322 322 323 323 324 321 304 306 318 316 314 312 303 301 302 303 301 303 311 318 316 316 310 308 308 308 306 306 306 303 302 299 298
315 316 317 319 312 316 299 302 316 323 321 322 322 319 310 318 299 303 317 316 315 312 309 309 309 306 306 304 305 320 318 313 305 306 309 307 306 307 304 305 302 300 301

GFSMA_sfc_thetae_027.txt.gz
Theta_e
335 335 334 332 332 332 331 331 331 332 333 336 336 335 336 336 337 336 336 339 339 341 344 347 349 348 347 345 345 343 344 342 341 340 341 343 345 345 344 343 341 339 338
334 333 332 332 332 333 332 331 330 331 332 334 334 336 335 336 336 334 334 339 337 339 343 346 348 348 346 345 346 343 343 342 340 340 340 343 342 344 343 340 338 337 336
336 335 333 333 333 333 333 332 332 332 332 333 333 334 335 335 333 332 336 338 339 339 343 344 346 347 347 347 345 344 342 340 338 339 339 340 341 342 340 338 336 334 334
337 335 333 333 332 333 332 330 330 328 330 331 332 333 333 333 333 333 335 339 339 341 343 344 346 346 347 346 346 344 341 339 338 338 339 340 340 339 338 335 334 334 333
336 335 334 331 333 331 330 330 330 329 329 330 331 332 333 332 333 334 338 339 341 343 345 344 344 344 344 345 345 344 341 339 338 337 339 339 338 338 337 336 333 332 331
335 335 332 333 332 330 329 329 330 329 330 331 330 330 333 335 337 337 337 338 337 344 346 346 348 344 343 344 344 343 342 340 339 339 338 338 338 337 336 333 332 332 330
335 334 332 331 330 329 330 330 328 327 329 331 327 324 326 329 333 337 336 336 336 341 344 347 348 345 344 343 343 342 342 340 340 338 338 337 338 336 334 332 332 330 329
336 334 331 327 330 329 330 328 328 326 328 329 326 327 319 326 329 334 333 334 335 338 342 343 344 342 340 340 340 342 341 340 341 338 338 337 336 335 333 332 331 329 328
334 333 330 329 330 331 328 328 328 329 326 328 331 326 317 318 323 332 331 334 337 335 335 338 341 341 340 338 340 340 339 339 338 338 337 336 335 333 332 331 330 329 328
332 333 333 332 332 330 330 328 329 330 330 326 327 332 332 329 321 319 329 332 335 333 334 338 337 339 336 336 338 336 335 337 336 336 335 333 333 333 332 331 330 329 328
332 331 333 332 332 330 330 329 329 330 330 330 330 330 331 331 331 326 320 326 330 331 332 333 335 333 333 334 334 333 333 332 332 332 333 333 334 333 332 331 330 329 328
331 333 331 332 332 330 330 329 330 328 327 332 333 333 332 329 329 329 322 324 323 326 329 332 333 332 331 333 333 332 330 329 328 329 331 334 335 334 332 331 330 329 329
331 332 333 332 330 332 331 331 331 331 331 332 333 331 333 334 333 332 326 322 321 324 325 330 331 331 331 331 331 331 330 326 325 325 327 329 331 332 332 331 330 329 328
331 334 332 332 332 331 331 332 331 331 332 333 330 325 329 330 332 335 327 324 320 322 324 323 329 330 330 330 330 330 327 325 324 322 322 324 326 328 329 329 330 330 328
332 333 333 331 332 332 331 332 330 331 332 333 333 329 328 332 333 333 333 327 324 318 319 323 324 327 328 329 330 329 328 324 324 321 321 321 322 324 324 325 325 325 325
333 332 333 333 332 332 331 332 331 332 332 332 331 330 331 332 332 331 329 329 330 326 318 325 324 326 328 329 330 330 328 325 322 320 320 319 319 320 321 321 322 322 323
333 332 332 332 332 331 332 332 332 331 330 327 328 328 327 330 330 330 330 329 327 326 321 322 325 327 326 326 327 327 328 326 324 320 321 319 317 317 318 318 318 319 319
332 332 331 331 328 327 329 329 327 328 327 326 327 327 327 328 330 329 331 330 328 326 323 320 322 323 324 325 325 325 325 326 326 321 318 317 315 315 316 315 315 314 312
332 332 331 326 325 327 327 327 326 325 326 327 328 327 328 330 330 329 327 328 327 328 325 322 320 323 323 324 324 324 323 324 325 322 317 317 316 316 315 313 312 310 307
331 330 329 325 325 326 326 326 326 326 328 328 329 330 329 330 329 327 326 327 326 324 324 323 321 321 322 323 322 318 318 323 322 325 316 316 315 312 311 311 309 307 304
332 331 329 325 325 325 325 325 325 326 327 327 328 329 330 327 322 325 326 328 327 323 322 321 320 320 319 320 319 321 321 323 322 324 323 323 320 316 313 308 308 305 303
328 331 329 326 324 324 306 311 321 326 327 327 326 326 325 321 317 312 313 314 323 323 321 320 320 319 320 320 321 323 319 319 317 325 317 314 315 313 313 309 303 302 301
331 326 330 327 322 322 305 307 312 328 328 326 324 325 323 321 322 320 312 311 311 310 315 323 321 321 320 324 327 323 323 321 322 322 316 311 313 309 308 304 301 299 299
328 327 324 327 321 317 302 303 310 328 328 327 325 325 324 323 323 323 322 320 321 323 323 326 328 327 329 329 330 329 325 321 321 321 321 310 313 308 307 305 300 298 297
330 328 328 327 319 312 300 301 317 325 326 325 327 326 324 328 303 307 320 320 320 319 304 302 303 302 303 306 316 322 319 320 317 318 319 313 311 309 309 306 303 298 296
329 329 328 327 314 315 300 303 318 324 322 322 324 321 310 321 300 305 325 326 323 320 319 321 321 313 316 311 309 330 325 322 319 314 317 314 312 311 308 309 307 305 305

GFSMA_sfc_thetae_030.txt.gz
Theta_e
339 339 338 337 337 334 333 334 332 333 334 335 335 335 334 335 335 336 337 341 340 340 341 343 347 348 349 348 347 345 344 344 343 342 341 340 342 343 345 344 344 343 341
340 338 337 336 335 336 335 337 332 332 332 333 334 336 334 336 338 337 337 338 340 339 340 343 346 348 348 347 346 345 344 343 342 340 339 338 340 342 344 343 341 339 338
341 340 338 336 337 338 339 338 335 334 332 333 335 336 336 337 337 337 336 334 339 339 340 343 346 347 348 348 346 345 344 343 341 339 338 338 339 341 342 340 339 337 335
342 341 338 335 338 337 337 337 334 331 329 334 333 333 335 335 336 335 333 334 339 336 341 344 345 346 347 348 346 345 343 342 339 337 337 338 339 340 340 337 336 334 334
341 340 338 337 339 335 335 335 333 331 333 332 331 332 335 333 333 330 333 337 341 338 344 346 345 344 346 347 347 345 343 340 337 337 337 338 339 339 338 337 335 334 332
340 338 338 338 338 334 334 334 331 333 331 332 332 333 333 331 330 332 337 338 341 343 346 348 348 345 344 346 345 345 343 340 338 338 339 338 338 339 337 336 333 332 331
338 339 339 336 335 333 333 332 334 331 331 334 332 330 332 336 335 338 338 340 340 343 347 348 352 351 342 344 343 344 343 341 339 338 337 337 338 338 336 333 332 331 330
337 337 336 335 334 330 332 332 332 332 330 334 329 328 319 328 331 336 337 337 337 342 344 345 347 344 341 340 342 342 342 341 340 340 337 337 337 336 333 332 331 330 329
338 338 334 335 331 332 332 334 333 330 329 333 333 328 319 315 321 335 336 337 340 339 342 344 345 342 338 342 340 341 341 340 342 339 337 337 336 334 333 331 330 329 328
336 336 335 333 334 335 334 334 334 332 333 330 330 330 332 327 318 321 333 337 338 339 339 344 344 342 341 343 341 339 337 338 338 337 336 335 334 333 332 331 330 329 328
334 334 336 336 335 337 335 334 331 333 333 334 333 331 332 331 333 326 321 328 336 337 337 343 338 338 339 342 342 336 335 334 333 334 334 333 331 332 332 331 330 329 328
337 336 335 336 337 337 334 332 333 334 336 335 336 335 334 331 329 330 328 328 326 329 334 336 337 332 333 334 336 334 330 330 329 329 331 332 333 334 332 331 330 329 329
334 334 336 335 336 335 334 334 334 334 331 333 334 334 334 335 337 331 334 326 324 325 328 335 334 334 335 332 332 331 330 327 325 326 327 329 331 332 332 331 330 329 329
333 336 336 336 335 335 335 336 338 336 337 337 335 335 334 335 337 336 336 325 321 324 327 325 332 332 332 331 330 329 327 325 324 323 323 324 327 328 329 330 330 330 329
334 335 336 335 335 335 335 336 338 336 337 336 333 327 338 335 338 340 339 336 324 318 319 325 327 330 330 328 328 328 327 324 325 321 321 321 323 324 325 326 327 326 326
334 335 335 335 335 335 335 336 336 336 335 334 334 333 335 338 335 337 332 330 334 324 320 326 326 328 327 327 329 327 326 324 322 320 321 320 320 321 322 323 324 325 324
335 333 334 334 334 335 335 336 335 334 333 334 335 334 332 336 333 330 332 334 331 333 322 324 325 326 326 325 327 327 329 328 324 320 321 320 319 319 320 321 322 323 322
335 333 333 333 332 333 334 334 331 332 331 332 329 329 330 332 332 334 338 332 330 326 323 318 323 323 324 326 326 326 325 326 325 321 319 318 316 317 318 320 319 315 313
333 333 333 332 332 332 332 333 331 331 330 329 330 331 330 330 331 332 333 330 331 326 325 321 320 323 323 324 323 324 323 325 326 321 317 316 317 316 314 313 311 308 305
333 332 332 331 331 330 330 329 330 330 329 330 332 333 333 332 332 327 332 329 330 324 323 321 320 320 321 323 323 319 318 322 323 324 317 317 315 312 309 308 307 305 303
333 332 330 330 329 329 328 329 329 329 331 332 333 332 334 329 323 325 333 331 327 324 321 320 319 319 319 319 319 320 320 321 324 324 322 321 320 317 313 309 306 304 302
332 332 329 328 328 328 308 312 324 328 328 329 330 330 332 325 319 311 313 316 324 324 321 320 319 318 319 321 321 321 319 319 317 328 324 320 322 317 316 310 302 301 300
328 333 331 330 327 328 306 308 312 330 329 331 330 329 328 327 326 325 311 311 311 310 317 323 321 322 321 323 323 322 322 322 320 321 320 315 319 312 309 303 300 299 298
329 326 326 324 324 326 304 305 310 332 330 330 329 328 329 325 323 323 323 325 323 322 325 325 325 325 326 331 330 324 329 330 326 322 324 314 316 311 308 304 298 298 297
334 332 330 323 318 323 302 302 316 330 327 326 330 327 328 324 303 308 322 322 318 316 306 306 310 310 308 310 322 328 324 322 319 321 324 318 315 311 309 306 302 297 296
334 334 329 325 313 318 299 301 316 329 326 325 330 325 309 315 303 308 326 324 326 327 327 324 320 314 317 314 309 332 327 322 322 321 324 316 313 313 310 313 309 304 303

GFSMA_sfc_thetae_033.txt.gz
Theta_e
343 341 341 339 339 339 336 335 336 335 336 334 332 332 334 337 337 337 336 342 341 341 341 341 343 347 348 348 347 346 345 343 340 343 342 341 340 341 340 342 343 343 343
345 339 340 340 339 341 338 341 338 333 332 333 335 334 337 337 336 340 336 342 343 341 341 341 342 347 348 348 347 346 345 344 344 343 342 342 341 341 341 342 342 342 341
344 343 338 338 338 346 341 341 337 339 334 333 335 338 336 336 335 338 336 335 340 341 341 341 342 347 348 348 348 346 345 345 343 341 340 340 340 340 341 342 341 339 337
344 342 339 338 339 342 342 338 335 334 332 337 338 337 335 337 337 337 337 335 334 340 341 341 344 347 348 348 348 346 345 343 342 340 338 337 338 339 340 341 339 336 334
342 342 341 340 343 341 338 337 334 337 332 334 334 335 335 336 335 335 335 335 339 340 338 343 345 346 348 347 347 346 344 343 341 339 338 338 338 339 339 339 336 334 333
341 341 340 341 342 339 338 336 335 334 333 332 332 332 334 335 332 334 333 334 336 339 339 344 347 343 346 347 346 346 345 343 340 338 338 337 338 338 338 337 336 334 332
341 342 340 340 340 338 336 336 336 333 334 335 332 332 333 336 334 335 334 334 337 339 340 346 346 351 345 345 344 345 345 343 340 338 338 337 338 339 338 336 334 333 332
342 340 340 339 339 338 336 333 335 332 333 335 328 330 322 324 327 332 337 339 338 338 340 345 347 347 348 344 341 343 344 343 341 338 338 336 337 338 335 334 332 331 330
339 340 338 338 338 338 334 335 336 331 330 332 334 330 323 317 320 331 335 336 337 338 343 345 346 346 344 340 338 340 342 341 341 342 338 337 337 336 333 332 331 330 329
337 337 338 337 336 335 338 334 337 334 333 329 335 331 332 329 318 319 333 337 342 340 342 347 347 344 341 339 338 340 338 339 340 339 337 337 335 334 332 331 330 329 328
339 336 337 336 336 341 335 335 334 334 333 334 329 332 331 328 332 321 320 326 337 340 342 344 342 342 344 344 342 338 336 335 336 335 335 334 333 328 328 331 330 329 329
340 337 335 337 338 337 336 334 334 335 336 337 335 336 332 328 326 329 329 329 330 331 338 340 337 336 336 338 339 334 332 331 329 330 330 331 330 329 330 331 330 330 329
337 339 337 337 338 337 335 336 336 336 335 337 337 334 336 338 337 337 335 330 325 328 332 337 336 334 334 335 335 334 331 326 325 325 326 327 328 331 332 332 330 330 330
339 337 336 336 336 335 334 337 341 339 338 339 335 336 337 332 336 334 336 332 321 323 329 329 336 337 334 332 334 331 328 325 324 323 323 325 327 329 330 330 331 331 330
335 335 335 336 335 335 336 338 337 335 336 336 336 335 337 337 335 339 341 340 325 319 322 327 326 333 332 330 329 328 327 325 325 322 321 322 324 325 326 326 327 326 326
334 334 335 336 335 335 335 338 338 337 335 331 335 334 334 338 337 333 334 338 336 330 320 326 329 328 327 326 328 327 327 326 322 321 321 320 320 321 322 324 324 324 325
334 333 334 334 333 334 335 337 336 334 332 334 332 333 332 331 337 331 334 334 333 333 324 326 328 325 324 324 325 326 327 327 323 320 321 319 319 319 320 321 322 322 322
334 332 334 331 331 332 335 334 332 333 332 331 333 332 330 333 333 335 336 333 330 333 324 320 323 323 323 323 323 323 325 327 324 320 319 318 317 317 319 319 316 314 313
333 332 333 331 330 331 332 332 332 331 332 329 330 332 329 332 331 327 327 327 328 326 324 321 319 322 322 324 322 323 322 323 324 320 316 315 315 315 313 311 309 307 306
333 331 333 331 332 332 331 331 332 331 330 331 333 334 330 331 326 328 327 325 324 323 323 320 319 319 321 322 321 319 318 321 319 323 316 316 314 310 309 308 307 305 303
332 331 331 332 331 331 329 330 331 330 331 332 334 333 333 327 321 324 329 326 324 321 320 319 318 319 318 318 317 319 318 319 319 321 318 316 315 313 310 308 306 303 302
333 331 329 329 330 330 310 314 324 331 332 332 332 333 331 325 318 311 316 318 324 323 320 319 318 317 318 319 320 319 318 318 316 324 322 320 320 314 314 306 302 301 300
333 332 331 329 331 328 308 309 313 332 331 333 332 331 330 329 327 325 312 311 311 311 316 322 320 320 319 320 320 317 317 322 322 327 325 318 319 313 307 301 300 299 298
330 327 327 329 331 325 306 306 312 332 333 333 332 331 328 328 327 328 326 323 323 324 324 325 324 324 324 322 319 318 322 329 325 323 327 315 317 309 308 302 298 298 297
334 332 329 324 327 325 304 302 313 332 332 331 331 330 326 324 305 308 323 319 319 319 310 309 309 307 305 309 319 325 325 321 317 319 326 319 316 311 308 303 299 297 296
334 333 329 326 314 328 301 300 312 329 330 327 325 322 306 317 303 308 326 321 319 320 322 323 322 313 317 317 310 331 328 322 320 319 326 320 316 313 308 309 302 298 297

GFSMA_sfc_thetae_036.txt.gz
Theta_e
342 344 343 342 341 340 339 336 336 335 335 333 330 331 332 334 335 337 337 345 344 344 342 342 342 344 348 348 347 348 348 346 346 342 341 339 339 339 340 340 340 340 342
344 343 344 341 340 342 340 338 336 335 334 333 330 332 333 334 335 335 335 337 342 342 343 342 342 343 348 348 347 347 347 346 344 343 342 341 340 340 341 341 341 342 341
345 346 343 341 339 341 340 338 337 336 334 333 331 331 333 333 334 334 335 335 337 342 342 342 342 342 348 348 348 347 346 344 342 344 343 342 342 341 341 341 342 342 340
346 345 341 339 340 341 340 336 335 333 332 332 330 330 331 333 335 334 336 334 334 335 340 344 344 343 348 348 348 347 346 344 344 343 342 342 341 340 339 341 341 339 337
344 342 340 341 342 339 337 336 334 333 331 330 331 331 332 332 333 333 333 334 334 336 339 341 343 345 348 348 348 347 346 345 343 342 341 341 340 339 340 340 338 336 335
344 341 340 341 340 338 336 333 333 333 331 327 331 330 331 332 332 333 333 334 331 332 338 336 338 342 347 348 347 346 346 344 342 341 340 339 340 340 340 339 337 336 335
342 342 340 340 338 336 333 333 332 330 328 330 327 326 328 330 330 330 331 331 333 335 336 336 338 338 341 346 345 346 346 344 342 339 339 338 339 339 337 337 336 335 334
343 340 340 338 336 335 333 332 331 328 328 331 324 323 318 322 327 329 331 333 332 334 336 341 338 338 340 342 342 343 345 345 343 340 338 338 339 337 337 336 334 332 331
341 341 339 337 336 335 332 331 331 329 326 329 328 322 316 313 319 326 328 330 330 333 334 337 338 339 341 340 342 343 343 343 343 341 338 337 337 336 335 334 333 331 330
339 339 338 336 336 335 333 333 333 330 329 323 327 328 327 323 316 315 325 327 331 331 333 336 337 339 336 340 339 339 338 340 342 340 338 337 336 335 333 332 331 329 329
338 338 337 336 335 335 335 333 333 329 330 327 325 324 325 325 322 318 316 322 326 329 335 334 335 336 337 333 330 329 336 336 337 337 337 336 336 333 331 327 328 329 329
340 337 336 336 337 336 333 335 333 332 331 331 329 327 325 322 321 318 317 320 321 327 331 334 333 334 336 335 336 335 333 332 331 330 331 332 331 326 325 328 330 330 329
336 335 336 336 336 334 335 335 333 332 332 331 328 328 329 330 328 325 322 322 321 327 327 330 332 332 334 335 335 335 333 328 326 325 325 325 326 324 328 332 331 330 330
337 337 337 336 336 335 334 334 334 332 332 332 328 331 329 329 329 329 325 321 320 322 325 326 332 332 332 333 333 330 327 324 323 322 322 322 322 326 329 329 330 330 331
337 337 336 334 335 334 334 335 332 331 331 332 329 329 332 331 331 329 326 325 321 316 318 324 325 330 331 332 330 327 326 324 324 321 319 319 321 324 325 326 326 326 326
334 335 335 335 334 334 334 333 332 333 331 330 331 328 328 329 330 330 328 326 326 322 317 323 325 327 327 328 330 326 326 325 323 322 321 321 320 321 322 323 322 322 323
334 334 335 335 334 333 334 333 331 332 330 330 328 327 326 326 329 331 331 327 326 326 320 323 325 325 324 324 325 326 327 326 324 321 321 319 318 319 320 320 320 321 320
335 332 332 330 333 333 333 332 332 331 330 328 327 326 326 328 325 328 327 326 326 326 322 319 321 321 322 324 325 324 325 326 324 320 319 318 317 316 317 316 314 314 313
333 330 330 330 330 332 332 333 331 331 329 329 328 327 326 327 326 326 325 325 326 326 323 320 318 321 321 323 322 322 322 321 322 319 316 315 314 314 313 311 310 308 307
333 330 329 331 329 330 331 331 331 330 329 329 330 328 327 327 325 324 323 323 324 323 322 320 318 319 320 321 320 318 317 320 319 319 314 313 311 310 309 308 307 306 303
333 329 331 331 332 331 328 330 330 329 330 329 329 329 327 324 323 324 324 322 322 321 320 319 317 317 317 317 316 317 315 316 315 316 311 310 308 306 306 307 306 304 302
332 330 330 329 331 327 309 314 323 328 329 329 327 327 326 321 317 315 316 316 320 320 319 318 317 316 316 318 318 315 315 312 311 318 313 312 312 307 306 302 303 301 300
332 329 329 330 327 324 309 309 312 332 330 330 329 329 327 325 323 321 310 312 311 311 315 321 318 318 317 319 318 317 316 315 315 317 317 311 312 302 300 299 300 299 298
330 328 328 331 326 321 306 305 307 332 330 329 330 329 328 327 324 324 323 322 321 322 322 323 322 321 321 321 321 320 319 322 321 320 318 310 307 301 300 296 299 298 297
331 328 327 325 325 323 302 303 312 331 328 328 328 326 325 322 306 307 322 320 320 318 309 308 308 306 304 307 315 318 320 316 313 315 319 312 308 303 300 297 296 298 296
331 327 324 325 318 324 302 301 310 329 326 324 323 319 307 314 305 308 322 321 319 320 321 320 317 310 310 310 307 321 321 316 314 314 318 312 309 307 302 300 296 294 294

GFSMA_sfc_thetae_039.txt.gz
Theta_e
335 333 330 332 332 331 332 331 331 332 330 330 330 329 330 331 331 332 334 343 346 343 345 344 343 343 349 349 349 349 349 348 347 345 344 342 341 340 338 338 339 340 340
334 333 334 332 331 331 330 330 329 328 327 328 328 329 327 329 331 331 332 334 342 342 344 344 343 342 347 349 348 347 348 347 346 345 343 341 339 339 339 340 340 341 341
332 335 332 331 330 331 331 329 328 329 327 328 327 327 330 331 331 331 331 334 335 342 344 343 343 343 346 348 348 347 346 347 346 344 343 341 340 341 340 341 341 341 341
334 333 331 330 331 330 330 328 328 326 326 325 323 325 329 327 330 329 329 328 331 332 339 342 344 345 346 348 349 348 347 346 345 344 343 342 341 342 342 341 340 340 338
337 333 332 330 331 330 328 328 327 326 324 324 324 324 325 325 327 330 328 330 329 332 334 339 342 344 345 348 348 348 347 345 343 344 343 343 342 341 339 339 339 338 337
337 334 332 331 331 329 326 327 325 326 325 323 326 325 324 325 326 326 327 330 329 329 333 333 336 338 345 348 347 348 346 346 344 343 342 341 341 341 339 340 338 337 336
336 333 330 330 330 326 326 327 325 325 323 323 320 320 320 323 324 324 326 325 327 328 331 333 334 335 340 345 346 346 347 347 345 342 340 339 340 340 340 337 337 336 335
332 332 330 330 327 327 326 325 324 322 321 324 319 315 311 315 320 324 325 326 326 329 331 332 333 334 336 340 341 343 346 345 345 342 340 339 340 339 338 337 336 334 333
333 331 331 329 327 328 325 324 323 321 318 320 321 316 310 308 313 320 323 323 325 324 327 330 333 333 335 338 341 343 344 344 344 342 339 340 340 338 335 336 335 332 330
331 332 333 330 328 327 324 323 325 322 321 318 319 323 319 316 310 310 318 320 323 325 325 328 330 333 333 336 341 342 341 341 343 342 339 340 338 336 335 334 331 327 325
331 333 332 329 327 326 324 324 324 323 322 319 318 317 318 318 318 313 309 315 320 322 324 327 328 334 335 335 340 339 337 338 338 338 338 339 337 335 332 331 326 328 330
328 331 331 328 327 326 325 326 324 322 323 322 322 320 317 317 316 313 311 311 313 318 326 329 329 332 331 329 331 335 333 332 331 332 333 334 334 333 328 327 327 330 330
326 326 326 325 326 327 326 325 324 323 323 323 323 321 321 321 322 317 314 313 314 317 325 328 329 332 332 330 333 335 333 329 327 327 327 327 327 327 326 327 329 330 329
325 326 327 326 327 326 327 325 324 324 325 325 322 322 322 323 324 321 318 317 313 317 322 326 329 330 332 333 333 331 330 326 322 320 320 321 322 325 328 329 330 330 330
329 327 327 326 326 326 327 325 324 324 324 325 324 323 323 325 325 324 322 323 317 315 318 321 323 329 330 331 329 326 324 322 320 318 318 319 321 323 325 325 326 326 327
326 327 326 326 326 328 327 325 325 326 324 323 324 322 322 323 324 324 322 323 319 318 317 321 323 326 328 327 327 325 323 321 319 318 318 318 319 321 321 322 322 323 323
326 326 327 326 326 325 327 326 324 324 323 323 323 324 321 323 324 324 324 323 321 320 319 322 323 325 326 324 322 323 324 321 319 319 320 319 318 318 319 319 319 320 319
326 327 327 327 327 327 326 325 325 326 325 323 324 324 321 326 324 323 321 320 320 321 320 318 321 322 322 324 321 322 323 324 322 321 319 317 317 316 316 315 314 314 313
326 327 328 328 327 327 326 326 327 326 325 324 325 325 323 324 323 322 323 322 322 323 322 320 318 321 322 323 322 323 322 322 323 320 316 316 315 314 312 311 309 309 308
328 326 327 328 329 328 328 328 326 324 325 327 326 326 326 324 323 321 322 323 323 321 321 319 319 319 320 321 320 317 317 319 316 316 314 312 312 311 310 309 309 308 305
327 328 327 325 324 324 325 325 324 324 325 326 327 327 325 325 322 322 323 323 323 321 319 318 317 317 317 317 316 317 314 314 314 313 310 309 307 305 305 308 309 306 303
325 324 323 324 321 322 307 311 318 323 325 323 323 323 321 320 317 313 313 314 321 320 318 318 317 316 316 316 317 315 314 313 310 316 310 306 306 303 303 301 303 302 301
322 322 321 321 318 315 306 307 310 326 325 324 323 322 323 322 319 318 311 311 310 310 315 320 317 317 315 316 316 314 313 313 312 314 311 306 303 298 298 300 301 300 299
322 320 321 321 316 313 304 303 307 325 324 324 325 324 324 323 320 322 321 321 321 321 321 322 320 320 319 319 318 316 315 316 314 315 313 303 301 296 296 296 299 298 297
323 322 323 317 315 312 301 301 317 327 325 322 323 325 323 322 306 307 321 319 319 318 308 307 308 307 305 307 314 317 316 313 310 313 312 305 301 298 296 293 295 298 296
323 323 322 322 313 313 299 300 319 324 320 318 319 318 309 315 303 306 321 320 317 318 319 318 315 310 311 308 309 318 318 313 312 310 313 307 302 301 296 296 293 294 293

GFSMA_sfc_thetae_042.txt.gz
Theta_e
332 333 332 329 331 331 331 329 329 329 329 329 329 329 328 330 331 330 328 337 342 344 344 343 344 344 347 349 349 350 349 348 347 345 343 343 341 341 342 339 338 337 340
335 333 331 328 329 329 330 329 330 328 328 327 327 328 325 326 329 329 331 331 343 344 344 343 344 343 345 348 349 349 348 347 347 345 344 343 342 341 341 339 338 339 340
335 333 331 331 329 329 329 332 328 327 328 328 327 327 326 328 329 328 329 330 332 342 343 343 344 344 344 347 348 348 348 347 346 345 344 342 342 341 340 340 340 340 341
335 332 330 329 329 328 329 327 326 325 326 323 323 323 324 326 328 328 328 327 332 333 339 341 342 343 343 345 347 347 346 347 345 344 343 342 341 341 341 341 340 341 340
334 331 330 329 329 328 327 326 325 323 322 322 323 323 323 323 324 328 326 327 329 331 330 336 340 343 344 345 346 347 346 345 344 344 343 342 341 340 340 340 340 340 337
334 330 330 329 328 326 325 325 324 324 323 322 325 324 321 323 323 324 325 327 327 329 330 330 332 337 344 344 345 346 347 346 345 344 343 342 342 341 340 338 338 337 334
332 330 329 328 327 326 325 324 323 323 323 324 321 319 320 323 321 322 323 324 326 327 326 330 330 332 337 343 345 345 346 348 346 344 342 339 340 340 339 338 338 337 332
332 330 329 327 327 326 326 325 322 322 322 323 316 315 312 312 318 321 321 323 323 325 327 331 331 331 333 337 339 344 346 346 348 344 342 340 340 339 340 338 337 334 332
331 330 328 326 326 327 325 323 323 321 317 318 318 314 308 306 310 316 320 321 323 321 325 328 330 330 331 335 340 343 343 344 345 344 341 340 339 339 338 335 335 334 331
330 330 328 328 328 325 323 322 323 320 318 315 317 321 316 313 308 310 316 319 320 322 322 324 327 330 331 334 341 342 340 342 343 343 341 339 340 338 335 334 334 332 327
329 331 330 327 325 324 323 322 321 321 319 317 316 316 316 315 314 310 307 313 317 319 321 323 325 327 331 333 337 339 335 338 337 339 339 339 339 336 334 332 329 327 329
325 327 330 325 325 324 322 322 323 321 319 319 317 317 315 313 314 312 309 310 311 316 324 326 328 331 331 335 339 338 333 331 331 332 334 335 335 335 333 329 329 329 330
323 324 325 324 323 324 324 323 321 320 320 319 320 319 319 318 318 315 312 311 311 318 321 327 328 330 330 330 334 335 333 328 327 327 329 330 331 330 329 328 329 330 329
323 323 324 324 324 325 324 323 321 321 321 322 322 321 320 321 321 320 315 313 310 314 321 323 328 330 331 331 333 333 330 326 326 324 323 324 324 326 327 328 329 329 330
325 325 324 324 324 325 325 322 322 322 323 321 322 320 322 323 324 321 319 318 315 312 316 321 324 329 331 329 329 331 328 324 322 320 320 320 320 321 323 325 325 326 326
325 324 324 323 323 324 324 323 321 324 322 321 322 321 320 323 324 324 319 319 318 318 316 321 324 326 326 326 326 325 323 322 320 319 320 320 319 321 322 321 322 323 324
324 324 325 324 324 325 324 322 322 323 321 322 321 321 320 321 322 322 320 321 318 318 316 319 324 324 322 322 320 320 320 320 320 319 320 319 318 318 318 318 318 319 320
323 325 326 325 325 325 324 323 324 324 323 324 322 322 320 324 321 321 319 317 318 319 320 317 321 321 320 321 320 319 319 319 318 319 318 317 316 315 314 314 314 314 313
324 324 324 324 325 325 324 324 325 324 324 323 323 323 322 323 320 322 319 319 319 322 321 319 318 322 319 321 319 320 319 320 322 321 316 315 314 314 313 312 311 310 308
326 325 325 327 326 325 326 326 324 322 323 324 325 325 324 323 321 322 322 322 322 321 319 319 318 318 318 321 320 318 317 319 316 316 314 313 313 312 311 310 310 309 306
327 327 327 324 323 324 324 323 323 323 323 324 325 325 325 323 321 321 323 323 322 320 318 318 317 317 317 316 316 316 314 314 313 313 310 309 307 306 307 310 311 308 305
323 322 323 320 319 320 306 310 319 322 322 322 323 322 323 319 316 312 315 316 320 320 319 318 317 315 316 316 316 316 314 313 309 314 309 305 306 302 302 302 304 303 301
320 319 318 318 315 313 302 304 310 322 320 320 320 322 323 320 318 316 309 310 311 311 316 319 317 316 315 317 316 315 314 313 312 311 309 302 302 297 298 300 301 300 299
318 318 316 315 314 312 301 303 309 321 321 324 321 324 321 320 320 320 320 319 319 320 320 321 320 319 319 319 318 317 315 312 312 311 309 300 298 295 295 296 299 299 298
318 318 317 314 313 313 301 306 318 324 323 322 324 324 322 320 304 306 319 318 317 315 306 305 306 305 303 305 312 317 312 310 308 308 309 301 298 295 294 293 294 298 297
323 322 319 316 310 316 299 304 317 322 319 319 319 318 308 315 302 305 320 318 316 316 317 316 314 309 310 307 307 318 313 310 308 307 310 302 298 296 294 294 292 294 293

GFSMA_sfc_thetae_045.txt.gz
Theta_e
332 331 330 329 330 331 335 331 330 330 328 328 329 328 327 327 328 328 327 336 339 341 341 342 343 343 343 346 349 350 350 347 348 346 345 344 344 342 342 343 342 340 338
331 330 330 329 328 329 330 330 330 329 326 327 327 327 327 325 328 328 328 329 338 340 342 342 344 342 342 342 348 349 349 347 347 346 344 344 343 342 343 342 340 339 338
331 330 329 327 329 327 327 328 330 328 328 327 328 328 328 328 325 325 327 328 330 340 343 345 344 342 342 341 344 348 347 347 346 345 344 343 341 342 342 341 340 339 339
333 330 329 328 328 326 327 327 326 327 324 326 324 322 323 325 327 329 329 327 328 331 337 344 342 341 341 342 344 346 346 347 346 344 343 343 343 343 342 341 339 339 340
334 331 329 328 327 326 325 325 325 324 321 322 322 322 322 322 323 327 326 326 325 331 331 337 340 341 343 343 344 344 346 346 344 344 344 343 342 341 341 340 340 339 339
334 331 330 328 326 325 324 323 322 323 322 321 323 323 323 323 321 322 324 325 325 328 331 328 329 333 341 344 344 345 345 347 345 345 344 342 342 341 340 339 339 340 334
332 329 328 327 326 325 325 324 322 323 322 323 321 320 321 321 320 321 322 323 324 326 327 328 328 330 335 344 343 344 345 347 347 345 342 341 342 341 339 339 339 333 330
334 332 327 326 325 324 323 324 324 321 321 323 318 316 311 315 319 320 320 321 322 325 325 326 328 329 331 333 337 344 345 346 346 344 342 340 340 340 339 338 333 330 332
333 329 328 326 325 326 324 323 323 321 316 320 317 314 309 306 308 314 318 319 320 320 323 326 328 329 329 331 338 342 344 344 345 344 342 340 340 340 339 338 331 330 331
329 329 328 326 325 324 323 321 322 318 316 313 317 318 313 311 307 307 314 316 319 319 320 322 325 327 328 329 337 340 340 341 343 343 343 340 339 339 339 334 334 332 328
328 330 328 326 324 322 322 321 319 318 317 315 314 314 313 313 312 308 307 313 316 317 318 320 321 323 327 329 331 336 338 336 336 339 340 340 340 339 335 332 331 327 330
324 327 327 324 323 322 321 320 320 319 317 316 316 315 313 312 311 310 307 308 310 314 323 325 327 325 328 330 335 337 333 332 330 333 335 336 337 334 331 330 329 330 331
321 323 324 323 321 322 321 320 319 319 318 317 317 316 316 314 315 312 310 308 308 318 321 324 328 328 330 330 334 336 334 329 326 327 329 331 332 332 331 330 330 330 329
321 322 323 322 322 323 323 321 320 319 318 318 318 318 317 317 317 318 314 311 308 312 316 321 328 328 330 331 334 334 331 326 325 324 325 326 327 327 328 328 328 329 330
322 322 322 322 322 322 322 320 319 319 320 319 320 319 318 318 319 320 316 315 312 308 311 321 323 327 328 328 332 333 328 326 325 322 321 321 322 323 324 325 325 326 327
323 322 321 322 321 322 322 320 319 320 320 320 321 320 318 319 322 321 319 316 314 314 314 321 323 325 325 326 328 327 327 324 322 320 320 319 319 319 320 322 322 323 325
322 322 323 322 322 322 321 320 319 321 320 319 319 320 319 319 322 320 319 317 315 318 318 320 323 323 320 318 320 323 324 322 320 320 319 318 317 318 319 319 319 321 322
322 323 323 323 323 323 322 320 321 321 320 320 320 319 321 322 320 320 318 315 316 317 320 317 320 319 317 318 317 318 321 322 320 319 317 317 316 316 315 315 314 314 314
322 323 324 323 323 323 322 322 323 322 322 323 322 321 321 320 319 319 316 317 318 319 320 319 317 319 318 318 316 317 315 315 318 319 316 316 315 314 313 312 311 310 308
322 322 322 324 324 324 324 324 323 321 323 323 324 323 323 322 321 320 319 320 320 319 319 319 317 316 317 318 317 315 315 315 316 317 315 314 313 313 312 311 311 310 307
324 325 326 325 322 323 323 323 321 321 322 323 324 325 324 323 320 321 322 322 320 318 319 317 316 316 316 315 314 316 313 313 312 313 311 310 309 309 309 311 312 311 306
324 323 323 320 318 318 305 311 318 321 320 322 321 322 322 319 315 313 315 316 319 318 318 317 316 315 315 316 316 314 313 312 307 313 308 304 306 303 303 303 306 305 303
319 318 317 317 315 314 301 303 309 321 320 322 320 323 323 320 318 319 311 312 312 311 315 319 317 316 315 316 316 315 314 313 312 310 308 302 301 298 298 301 302 301 301
318 315 315 314 313 312 301 303 307 320 319 320 322 322 320 320 318 318 320 319 320 320 319 321 319 319 319 319 319 317 313 311 311 309 308 302 297 295 295 295 300 299 298
316 314 314 313 313 312 301 302 315 323 323 323 323 322 321 319 303 305 319 316 315 314 307 306 306 304 303 304 312 315 312 310 307 307 307 300 297 294 294 293 294 299 297
321 318 315 312 309 313 300 303 316 322 320 319 320 318 308 313 301 305 319 317 314 314 314 313 312 308 311 309 308 316 314 310 307 305 308 300 297 295 295 294 292 294 293

GFSMA_sfc_thetae_048.txt.gz
Theta_e
333 333 334 333 332 333 336 337 336 336 335 334 333 331 331 330 330 330 331 335 338 340 341 341 343 342 343 346 346 349 350 348 348 346 345 346 345 345 344 343 343 342 340
333 332 331 330 329 331 333 335 334 334 333 332 331 331 331 331 331 332 332 334 337 340 341 342 342 343 342 343 345 348 349 346 346 346 345 345 345 344 343 344 343 342 340
332 331 329 328 329 330 332 332 332 332 330 330 329 331 331 331 330 329 330 332 333 337 342 343 343 343 341 341 343 344 348 346 347 346 344 344 344 343 344 343 342 341 339
333 331 329 329 330 329 330 330 330 329 329 329 328 329 330 329 330 331 332 331 332 333 335 342 343 343 341 341 342 343 347 345 345 345 345 344 344 342 344 343 341 340 339
333 331 330 330 331 330 329 329 328 329 326 326 327 327 327 327 327 328 330 331 330 333 334 336 341 341 341 341 341 343 346 344 343 344 344 343 343 343 343 341 341 340 339
334 332 331 330 330 328 327 327 327 326 326 326 325 326 326 327 327 327 329 330 330 331 334 334 337 339 341 342 342 343 345 346 344 344 344 343 343 343 342 340 340 339 336
334 333 331 330 329 328 328 327 326 325 323 324 323 322 324 325 325 325 327 328 329 330 332 334 334 335 337 341 343 342 343 346 345 344 342 341 342 342 341 340 339 334 333
334 333 332 329 329 327 327 325 326 325 325 326 321 320 314 319 321 325 325 326 328 329 330 329 332 333 336 340 343 342 343 343 347 347 343 338 341 341 340 339 335 333 332
334 333 331 329 327 328 326 326 327 325 321 323 323 318 311 311 314 317 321 324 327 327 329 331 331 333 335 337 339 342 343 343 345 345 343 341 341 341 339 336 334 333 332
332 331 329 328 328 327 326 325 325 324 321 319 321 320 318 317 313 314 319 322 324 325 327 329 331 332 334 335 337 339 340 341 344 343 341 342 341 340 338 334 332 334 330
329 331 330 329 328 326 326 325 324 322 321 319 320 319 318 318 318 316 313 318 321 323 325 327 329 331 332 333 337 338 337 337 338 339 340 340 341 340 335 331 333 331 331
327 329 329 328 327 325 325 324 324 322 321 321 321 320 319 318 317 316 313 314 317 320 325 328 330 330 332 334 335 335 334 333 330 330 335 337 338 337 332 331 330 331 332
324 326 327 326 325 325 325 324 323 323 322 321 321 321 321 320 320 319 317 314 315 320 324 329 331 332 333 335 336 336 334 329 326 327 329 331 333 331 330 329 330 332 330
324 326 326 326 325 326 325 324 324 323 323 322 322 321 322 322 322 321 319 317 314 316 321 323 330 330 332 332 334 334 333 326 324 325 326 327 327 327 325 326 330 330 330
324 325 325 325 325 326 325 324 323 323 323 323 323 323 323 323 323 323 321 321 320 314 316 322 325 328 330 331 335 334 332 326 326 323 323 323 323 324 325 325 326 326 327
325 324 323 324 324 325 325 324 323 323 323 324 324 324 322 323 323 323 323 321 320 321 315 324 323 324 326 326 334 331 330 325 323 321 321 321 320 320 321 321 322 323 324
324 324 324 324 324 324 324 323 323 324 324 323 324 323 322 324 325 323 321 321 322 323 318 320 322 321 320 321 323 326 327 325 322 321 321 318 316 317 318 317 319 322 322
324 325 325 325 325 325 324 324 323 324 323 322 321 321 322 324 323 323 322 321 322 325 321 316 319 317 317 319 321 321 322 322 322 319 317 315 315 315 315 316 317 316 316
324 325 326 325 324 325 325 325 325 323 324 322 322 321 323 322 321 321 321 321 323 324 322 318 316 318 317 317 316 317 316 317 320 320 317 316 316 316 315 312 312 311 310
324 325 325 326 326 326 326 326 325 324 325 323 324 323 323 322 322 320 321 322 323 322 321 318 315 315 315 316 315 313 313 316 316 318 317 315 315 314 312 311 312 311 307
325 325 325 327 326 325 323 325 324 323 325 324 324 324 323 322 321 320 322 322 323 320 318 316 315 314 313 313 311 313 311 313 313 314 312 312 312 312 313 313 314 311 307
325 326 324 323 322 320 302 308 320 323 324 323 323 322 322 318 316 314 315 315 320 322 319 317 315 313 314 315 315 313 312 311 306 313 309 305 310 306 308 310 307 306 304
322 322 322 321 320 318 301 302 309 324 323 323 323 322 323 321 320 323 311 311 310 311 316 320 316 316 315 316 315 314 315 314 311 310 311 303 304 303 305 305 303 303 302
319 318 318 318 318 315 301 302 306 323 323 324 324 323 321 319 319 321 320 319 321 322 321 323 322 320 320 320 320 318 313 310 310 310 312 307 305 305 302 303 300 300 299
319 317 318 317 318 318 301 300 314 325 324 323 323 322 320 318 304 304 320 319 317 314 306 306 306 304 303 305 311 316 312 312 309 311 310 309 304 303 302 302 302 299 298
320 318 316 316 309 318 300 301 316 323 321 320 319 317 306 312 300 304 318 318 314 314 314 314 311 307 310 308 308 318 316 311 310 308 314 308 303 303 304 301 300 300 300

GFSMA_sfc_thetae_051.txt.gz
Theta_e
341 340 341 339 339 340 341 341 343 345 345 345 343 341 339 339 339 338 338 336 337 339 341 340 342 342 343 345 347 348 349 349 347 346 345 344 344 343 343 343 343 343 340
342 339 340 338 338 338 338 339 340 342 347 345 343 342 340 340 340 339 338 339 337 339 340 342 342 342 342 344 345 346 348 349 347 346 345 345 344 343 343 343 342 342 341
343 342 338 338 338 341 341 340 339 343 343 343 342 341 339 340 339 339 338 338 337 338 340 341 341 343 343 342 343 345 347 348 347 345 344 343 344 343 344 344 342 343 340
343 341 338 337 339 339 338 337 337 341 340 342 343 341 340 341 339 339 338 338 337 337 337 340 342 344 345 343 342 344 344 348 346 344 344 344 344 343 343 344 343 342 340
342 341 338 338 340 339 337 336 339 340 341 342 340 338 340 339 339 336 337 337 340 338 338 340 341 341 342 342 342 342 344 347 345 344 344 345 344 342 344 344 341 341 340
343 342 340 340 340 339 337 338 340 341 340 338 336 332 334 335 332 336 337 336 338 338 340 340 340 338 341 341 342 342 343 347 344 344 343 341 342 343 342 341 341 340 339
343 342 340 342 340 336 336 342 341 338 334 331 329 329 327 329 331 333 335 335 336 337 338 339 340 345 338 340 341 342 341 345 344 345 343 339 341 342 341 341 338 338 336
343 342 342 338 337 336 341 340 337 333 333 333 328 327 323 324 326 330 329 334 337 337 336 337 339 339 340 344 341 342 341 344 345 345 344 341 340 341 341 340 337 333 331
344 343 342 340 339 341 340 339 337 335 329 327 329 329 321 316 321 326 332 332 335 336 336 338 337 338 342 344 341 341 343 344 344 344 344 341 341 341 340 337 334 331 328
343 344 344 342 342 341 340 339 335 331 329 323 327 327 327 327 318 318 324 327 332 333 337 336 338 338 341 341 340 341 340 341 344 343 342 343 342 340 338 335 333 333 333
344 342 343 342 341 339 339 338 335 329 328 329 328 325 327 329 330 326 319 323 328 332 335 336 337 339 340 341 342 338 337 338 339 339 340 341 341 341 338 335 334 332 330
339 342 341 341 341 340 338 337 337 335 332 332 331 330 327 325 326 327 324 323 325 327 333 336 340 340 343 343 339 336 334 333 332 332 333 337 339 339 336 335 333 333 332
337 340 341 341 339 339 337 337 336 334 333 331 332 329 330 328 330 327 326 323 323 325 329 332 336 340 341 341 341 336 335 330 327 327 329 331 335 334 333 334 334 333 332
339 341 340 340 338 337 335 336 334 333 334 333 333 332 330 330 329 328 325 325 319 321 324 326 336 336 336 335 336 333 340 327 325 323 325 328 327 329 329 329 331 330 329
337 338 338 338 336 335 336 336 333 333 334 333 333 333 331 331 331 330 329 327 327 319 318 327 330 335 337 335 335 340 343 325 325 323 324 323 324 323 325 326 327 327 327
337 336 336 336 335 335 335 335 333 334 332 332 331 332 332 332 332 331 330 330 328 328 320 327 328 331 331 333 337 338 337 327 323 322 322 320 319 320 321 322 322 323 324
335 334 333 333 333 334 335 334 334 332 330 333 333 332 332 333 331 331 329 330 327 328 322 320 324 322 323 326 330 332 329 328 324 321 321 319 318 318 318 318 316 316 317
334 333 333 332 332 333 334 333 332 331 330 330 329 330 325 329 331 331 329 325 329 332 325 319 319 317 319 322 324 324 325 326 325 321 319 317 315 314 314 314 314 313 316
333 333 333 332 332 333 333 333 332 331 329 326 325 321 324 326 327 329 327 328 330 329 328 324 317 318 317 318 318 320 320 320 320 319 316 315 314 314 314 312 312 312 310
333 333 333 332 332 332 332 333 332 331 329 327 325 326 325 324 326 327 329 331 327 324 326 319 316 315 315 317 317 316 314 317 317 319 318 316 316 316 314 313 313 312 309
334 333 333 333 334 333 331 332 331 331 331 326 325 325 325 324 322 323 329 328 326 324 321 317 315 314 313 313 313 314 314 314 314 316 315 316 316 315 315 314 316 313 308
334 333 332 333 333 329 303 308 323 331 330 327 324 325 324 320 318 314 316 317 323 324 319 316 316 313 313 313 315 313 311 309 307 315 313 307 313 314 317 320 309 307 306
335 332 330 332 332 330 302 303 309 331 330 330 325 324 322 324 324 323 312 311 312 311 318 323 317 317 314 315 316 313 313 313 312 313 312 305 309 310 310 312 305 305 303
333 333 332 332 331 323 301 302 307 332 329 328 326 324 321 320 326 324 325 325 325 326 326 327 326 322 323 324 320 318 315 313 313 313 316 308 311 314 315 315 302 302 301
330 330 330 329 330 327 301 301 316 328 326 326 326 324 322 320 305 305 324 323 322 319 308 307 308 305 303 305 315 316 313 312 310 311 312 317 316 315 314 314 310 300 300
330 327 328 328 313 329 301 301 316 326 323 321 320 320 306 314 299 304 322 322 317 317 318 319 316 309 315 311 309 319 318 314 313 312 320 317 315 315 313 315 312 307 305

GFSMA_sfc_thetae_054.txt.gz
Theta_e
346 342 342 338 340 340 340 341 342 344 345 346 344 343 341 341 341 340 339 341 339 340 341 341 340 343 343 345 347 346 349 350 348 346 344 344 344 342 341 341 342 341 341
348 341 341 339 338 339 339 340 341 342 344 345 344 345 344 342 341 341 339 340 340 340 341 342 341 343 343 343 343 343 345 348 349 346 345 344 344 344 343 343 343 342 339
349 348 341 340 338 341 341 341 341 342 342 345 346 346 345 342 340 340 340 339 339 340 340 341 342 343 343 343 343 344 347 348 349 347 345 344 344 344 343 343 343 342 340
349 347 343 341 340 341 339 338 337 335 336 346 346 346 345 341 340 342 340 339 341 339 340 342 342 343 343 343 343 343 346 347 348 346 344 343 343 344 343 343 343 342 341
349 347 345 343 345 339 338 336 335 335 336 344 344 344 342 339 339 339 340 341 343 340 340 342 342 342 344 345 343 343 343 346 347 345 344 344 344 343 343 343 342 341 341
348 348 346 346 344 340 337 336 337 336 344 341 338 337 340 340 338 338 340 339 341 342 342 340 340 338 342 344 343 342 343 344 347 346 342 343 343 343 343 342 341 341 340
349 346 347 346 344 340 340 339 339 340 341 341 336 334 334 338 335 331 336 341 339 341 341 341 339 348 340 343 342 341 342 343 346 345 343 341 342 342 342 341 340 339 339
350 348 348 345 345 341 341 342 343 339 339 339 333 334 326 332 333 334 338 340 339 342 338 339 338 342 342 339 340 341 341 343 346 345 343 341 340 342 341 341 340 337 333
350 350 349 348 347 344 343 347 345 342 338 335 338 333 324 324 327 330 333 334 336 341 340 337 338 341 342 342 341 341 343 344 345 345 345 341 341 341 340 340 337 332 331
350 349 350 349 348 344 345 344 343 341 339 332 333 332 335 332 323 321 328 333 338 337 340 341 340 340 343 340 342 342 339 342 346 345 345 344 342 341 340 337 335 332 329
350 349 351 350 349 345 346 344 342 339 337 336 332 330 330 331 332 329 323 324 332 333 338 341 341 338 342 344 340 340 338 338 341 341 341 341 342 341 339 335 332 330 331
349 350 349 349 348 345 346 344 344 339 338 336 334 334 331 329 331 330 328 328 327 332 338 341 340 343 340 344 341 336 334 334 333 333 335 338 340 340 337 335 333 333 333
343 347 348 347 345 346 344 343 342 339 337 335 336 332 335 336 336 332 330 330 326 327 333 341 343 341 338 339 341 338 335 331 328 327 329 333 335 335 335 335 334 332 334
341 348 347 346 345 344 342 341 337 336 338 336 335 336 332 335 335 329 331 331 323 326 328 332 338 340 343 339 341 335 338 328 325 324 325 328 329 331 331 331 331 331 331
344 346 346 344 343 341 340 339 335 336 336 335 335 335 335 337 335 332 335 338 332 320 322 328 332 339 337 338 338 341 343 325 325 323 323 324 325 326 326 326 326 326 327
342 343 342 341 340 339 338 338 336 337 336 334 334 334 335 336 334 333 336 334 336 331 323 331 331 335 337 335 337 340 341 329 323 322 322 322 321 321 323 322 322 324 325
342 340 339 338 336 335 336 337 337 335 334 334 335 334 333 335 335 334 341 333 333 337 330 327 327 327 329 334 339 336 337 334 326 322 322 320 319 319 319 318 319 319 319
339 337 336 334 333 334 337 336 335 334 333 332 332 333 332 334 335 336 332 331 335 337 332 323 321 321 322 326 331 331 329 329 327 321 319 318 316 315 314 313 312 312 312
336 336 335 333 333 334 335 336 334 333 332 331 327 327 329 329 333 335 333 331 336 337 332 326 318 319 321 322 323 325 324 323 323 320 316 316 314 314 312 311 310 310 311
336 335 335 333 333 335 335 334 334 334 332 329 326 327 327 325 327 332 332 333 334 334 330 323 318 317 319 320 320 316 315 318 318 320 319 317 315 314 312 311 313 313 310
334 334 333 334 335 335 333 335 334 333 334 328 327 326 327 325 322 324 335 333 332 330 325 319 317 316 314 315 315 317 314 315 316 318 317 317 317 316 315 313 317 315 309
336 335 334 334 334 332 305 311 325 335 333 330 325 326 326 321 320 315 317 319 328 330 322 319 317 316 315 315 316 314 313 312 308 315 314 311 318 316 318 321 314 309 307
337 335 335 334 334 333 304 304 310 335 332 331 327 325 323 326 324 328 312 312 314 312 319 322 320 317 316 316 317 314 315 315 314 315 315 309 313 315 322 316 307 306 305
336 336 335 334 335 326 303 303 307 333 334 331 327 325 323 330 328 324 327 326 327 329 327 329 326 323 321 321 319 317 315 314 315 318 318 308 312 314 322 320 304 305 303
337 335 335 334 334 331 302 302 311 333 332 329 326 324 324 325 308 307 327 326 326 328 309 308 308 306 304 305 315 318 312 313 312 311 317 315 317 320 321 320 317 303 302
335 334 334 334 318 331 302 301 315 330 326 325 322 319 306 317 300 303 327 326 325 324 325 324 318 310 313 311 308 319 319 314 313 310 318 319 320 319 315 321 320 315 313

GFSMA_sfc_thetae_057.txt.gz
Theta_e
347 343 346 341 342 342 342 342 341 345 346 344 343 343 342 343 341 339 339 343 341 341 341 342 341 342 344 346 348 348 350 350 348 346 344 339 339 342 342 341 337 340 337
351 343 346 342 342 341 340 341 342 341 343 343 343 344 343 343 342 345 338 343 344 342 342 343 343 342 344 345 346 347 348 348 348 346 345 342 343 342 341 340 340 341 339
355 353 345 343 343 343 350 346 348 344 340 342 344 342 345 344 342 344 341 338 342 344 342 343 343 342 344 344 343 344 346 348 349 347 344 344 344 343 343 342 342 342 342
357 356 345 345 346 344 341 339 338 337 337 337 340 348 347 344 342 339 340 341 341 339 341 343 342 343 344 345 344 344 346 348 347 347 345 344 344 344 343 343 342 342 341
353 353 346 347 354 343 341 339 338 339 337 335 342 346 346 342 341 337 339 340 342 342 340 341 342 343 344 345 344 344 345 347 346 347 346 345 344 344 343 343 342 342 341
351 353 348 352 350 343 341 340 343 339 336 335 340 344 340 344 341 339 340 344 342 342 340 343 340 337 343 345 346 346 344 345 347 348 346 344 343 344 344 344 342 341 340
351 355 348 350 350 347 347 349 341 339 335 342 342 339 335 340 342 342 337 336 337 340 339 341 334 339 339 342 344 346 343 344 345 346 344 343 342 343 344 343 342 341 340
352 351 353 351 350 345 348 344 345 337 341 346 334 335 326 332 335 338 336 335 340 338 336 342 338 342 337 339 342 344 343 343 345 346 345 341 342 343 342 342 340 341 338
352 351 350 352 350 350 343 345 345 344 337 342 340 335 325 322 332 340 335 337 334 336 341 337 338 340 344 336 340 340 343 344 344 345 345 343 342 342 342 342 339 337 335
350 350 351 351 353 347 352 346 345 345 343 338 339 335 337 334 327 325 329 334 336 337 340 345 335 340 341 342 344 342 340 342 345 346 345 344 344 342 342 340 337 336 334
351 350 351 353 351 346 350 349 347 345 342 339 334 335 335 335 336 330 325 329 336 335 336 339 342 338 340 343 342 338 338 340 341 343 342 343 343 343 342 337 335 334 330
348 351 350 352 353 350 347 344 347 343 341 342 340 333 334 329 330 331 329 331 331 337 340 339 344 345 347 345 344 335 335 335 335 334 336 338 341 341 338 335 333 332 333
347 349 352 352 347 348 346 346 345 342 340 337 337 334 337 335 339 337 333 331 328 332 335 341 343 346 341 342 342 339 336 332 329 328 330 333 335 335 336 334 333 333 333
347 353 350 347 345 345 344 345 342 338 342 338 338 340 336 334 342 340 334 330 326 328 331 333 338 346 341 344 342 338 336 329 326 325 326 328 330 331 332 330 331 332 332
346 347 346 345 344 343 342 343 337 338 339 339 337 337 334 333 334 335 334 340 336 324 326 332 333 341 346 342 340 340 338 326 326 323 323 324 326 327 327 326 326 327 328
345 343 343 344 342 340 339 340 338 338 338 337 334 335 335 336 337 336 336 339 338 327 327 336 334 339 341 337 336 342 342 329 324 322 323 322 322 322 323 322 323 324 325
343 340 340 340 339 337 338 338 337 337 333 336 336 334 334 336 338 339 337 333 339 337 331 329 329 331 333 336 337 342 338 338 329 322 323 321 319 319 320 320 320 322 323
341 339 339 337 335 334 336 337 335 335 333 333 333 333 332 335 335 337 340 337 337 336 332 325 325 325 327 334 338 334 331 333 330 322 319 318 317 317 316 316 316 317 316
338 337 336 334 333 333 336 337 335 334 334 334 334 330 330 332 330 337 335 334 340 338 336 326 321 322 322 327 327 326 325 325 323 321 317 316 315 315 314 312 311 310 311
336 335 334 333 332 333 335 334 335 334 334 332 331 329 327 325 329 331 329 335 337 335 334 325 320 320 319 321 322 318 316 319 319 321 320 318 316 314 313 312 312 313 311
336 334 333 332 333 332 330 336 335 335 334 331 329 328 328 326 322 322 332 336 335 335 327 321 321 319 316 316 316 318 315 316 316 318 318 318 318 316 314 313 317 316 311
335 333 334 335 336 328 306 313 325 336 334 331 327 326 327 321 320 314 316 315 329 332 328 323 321 317 317 316 317 316 314 312 309 319 316 315 321 316 315 319 314 312 309
339 336 336 335 335 334 306 308 310 336 334 333 327 325 324 326 323 329 316 314 314 314 320 329 323 320 316 317 317 316 316 316 313 315 315 311 319 317 321 318 310 308 307
337 338 336 335 336 328 304 303 307 336 335 334 327 326 324 329 329 328 330 329 330 329 327 328 326 323 322 321 318 318 319 316 315 316 318 309 314 314 318 322 307 306 305
338 336 335 335 335 331 304 304 316 334 332 329 327 326 326 328 307 309 329 327 327 327 308 308 309 305 303 305 313 317 314 313 311 313 319 313 315 316 322 320 316 305 304
337 336 333 335 322 332 303 302 315 333 328 325 324 320 308 321 302 304 329 330 325 324 324 320 317 310 313 311 308 318 316 313 312 312 320 317 318 320 316 322 321 313 313

GFSMA_sfc_thetae_060.txt.gz
Theta_e
339 340 340 338 340 339 341 338 339 339 340 341 342 342 340 341 341 338 338 346 344 344 343 343 341 341 344 348 348 349 350 349 347 345 344 343 342 343 343 341 340 338 336
345 341 340 342 338 341 340 339 338 338 340 342 342 343 344 341 342 340 339 340 344 344 344 344 344 342 343 346 348 348 349 349 348 346 343 342 338 342 343 343 340 337 337
344 346 343 338 343 342 346 342 340 340 343 342 341 344 341 344 343 341 340 337 340 344 345 344 344 344 343 345 346 348 348 348 348 346 344 342 341 342 343 342 342 340 340
352 349 346 345 342 347 341 342 341 341 340 338 338 341 343 342 339 341 341 337 339 337 342 344 345 344 345 347 345 347 347 345 347 346 344 342 342 343 343 343 343 342 341
351 352 348 347 351 343 344 342 339 340 337 338 337 342 341 340 340 339 339 336 340 340 338 340 342 343 343 346 346 346 346 345 346 345 345 344 344 344 343 342 341 341 340
353 350 351 347 352 346 343 342 341 341 339 337 334 339 337 340 340 337 337 339 337 338 338 337 336 335 341 344 346 347 345 346 346 347 346 344 343 343 343 341 342 341 340
351 352 348 350 350 345 344 346 344 341 338 337 337 334 335 337 337 338 338 337 336 337 337 336 336 336 335 340 342 345 346 345 345 346 346 344 342 343 342 342 343 341 340
353 351 349 348 348 346 347 346 342 336 335 339 333 329 324 328 333 334 335 334 333 335 337 336 335 335 336 334 336 344 346 345 345 345 346 342 342 342 343 343 342 341 339
353 352 349 350 348 346 344 344 343 337 335 338 336 330 321 319 325 332 333 333 333 334 333 335 334 335 336 334 336 340 344 345 345 345 345 343 343 343 344 342 341 340 338
352 350 349 349 348 346 345 342 342 341 338 333 336 336 334 330 321 320 329 331 333 331 330 332 332 332 334 332 335 339 339 341 344 346 346 345 343 343 343 342 341 337 337
352 349 349 350 348 347 348 345 344 340 339 335 333 332 330 331 330 324 319 323 329 331 332 332 331 332 333 330 330 335 337 338 340 342 342 343 343 343 341 340 338 337 335
346 347 347 348 349 348 347 345 344 342 340 337 337 333 330 326 325 325 322 322 323 326 330 331 331 332 333 335 337 336 334 336 336 335 336 338 339 342 341 339 338 336 334
343 345 346 349 349 349 346 346 343 341 338 337 336 332 332 330 330 328 324 322 321 326 327 331 332 335 335 335 334 335 335 332 330 329 330 331 335 338 338 337 337 333 331
345 348 349 350 348 347 345 344 342 339 340 336 335 334 332 331 333 330 326 323 319 321 325 324 331 333 333 335 337 337 332 329 326 325 325 327 331 331 331 332 331 331 332
349 350 349 347 346 344 343 342 340 338 338 337 335 334 333 333 333 332 331 328 323 317 319 325 325 331 333 333 335 334 333 326 326 323 323 325 326 327 327 327 327 328 328
347 347 346 345 341 342 341 340 339 338 336 336 334 333 332 332 333 332 331 330 328 323 318 325 328 330 332 334 332 336 333 327 323 322 323 323 323 324 323 323 323 325 325
345 343 343 341 337 337 338 338 337 335 335 333 333 332 332 334 333 332 332 329 328 327 322 325 328 330 330 330 333 330 332 329 324 322 323 321 319 319 319 320 321 322 323
343 341 341 337 336 337 338 336 335 335 332 331 332 332 329 334 331 332 330 327 328 328 326 320 323 324 327 330 332 331 331 331 327 323 321 319 317 316 316 316 317 317 317
341 339 339 334 335 335 334 336 335 332 334 332 332 330 330 331 327 329 330 328 329 329 328 321 319 322 322 327 325 325 324 323 323 322 318 317 316 316 316 315 314 314 312
339 339 338 335 333 335 334 334 333 333 333 330 330 328 326 324 325 326 328 328 329 326 326 319 319 318 320 322 321 318 316 319 319 322 320 319 317 317 315 313 313 313 312
338 336 335 333 335 332 331 333 332 333 332 329 329 328 326 325 321 319 325 326 327 326 322 319 318 317 316 317 316 317 315 316 317 318 317 319 319 317 313 313 316 315 312
338 334 334 332 329 326 307 312 329 334 333 329 326 325 324 321 319 314 316 317 322 326 320 320 317 315 315 316 317 315 315 313 310 320 316 315 318 314 314 314 313 311 310
336 335 337 336 332 325 304 307 312 334 331 331 327 323 323 326 322 326 314 315 315 316 320 323 317 317 315 317 317 315 315 314 312 315 316 312 317 314 316 316 310 309 307
337 338 336 335 334 319 304 305 309 335 333 331 325 325 323 326 326 327 327 326 326 326 325 326 322 319 319 319 319 319 317 315 315 316 317 309 314 314 317 317 308 307 306
336 335 335 333 331 323 305 304 313 333 330 326 326 324 325 327 308 308 327 325 323 318 307 305 306 305 304 305 314 318 314 312 310 311 316 312 313 313 315 316 311 305 304
336 337 334 334 322 324 304 304 314 331 326 323 323 319 307 320 301 304 328 326 319 318 316 315 313 309 311 308 310 320 317 312 311 310 315 312 313 315 314 317 314 307 306

GFSMA_sfc_thetae_063.txt.gz
Theta_e
333 331 330 331 332 335 336 334 334 336 337 337 338 337 338 339 339 337 339 347 345 344 343 341 341 342 342 346 348 348 349 347 346 345 344 340 345 345 342 341 341 341 339
336 333 331 332 332 332 335 335 332 334 334 335 335 337 338 338 334 337 336 340 345 346 347 344 343 341 342 344 348 348 347 347 347 345 344 344 344 345 343 342 341 339 338
337 335 335 332 332 334 333 336 334 331 333 335 335 337 340 338 338 337 335 336 340 345 346 346 345 344 342 343 346 347 347 346 348 345 343 343 343 344 344 344 342 340 339
339 338 336 334 333 334 335 335 334 332 332 334 335 335 339 340 338 337 337 336 335 336 344 346 346 346 345 343 345 345 347 345 345 345 344 343 342 342 343 344 343 340 339
341 339 340 338 334 334 335 332 331 332 330 330 330 332 336 333 333 337 334 334 334 334 334 342 343 343 344 344 345 346 348 345 344 345 345 344 344 342 343 343 342 341 340
345 341 340 339 340 334 334 333 331 330 329 328 331 335 332 332 333 332 333 335 334 336 334 333 334 338 342 344 344 345 345 345 344 345 345 344 342 343 343 341 341 340 340
348 345 342 341 339 338 335 334 333 330 328 328 328 326 327 331 331 332 331 332 333 333 332 334 334 334 333 341 342 343 345 344 344 346 345 342 343 343 343 343 341 341 341
347 344 341 340 340 338 336 335 334 329 327 329 325 322 318 321 326 329 330 329 328 331 332 332 332 333 332 332 332 341 344 344 344 345 345 343 343 343 342 342 343 342 341
346 346 343 340 340 340 336 335 333 328 325 328 328 323 319 313 317 323 326 328 327 327 327 329 332 334 334 333 334 337 343 344 346 344 345 345 344 344 343 342 342 341 340
345 345 343 342 341 339 337 336 335 330 330 326 331 330 325 322 315 313 321 325 326 327 325 329 331 333 332 332 335 337 339 342 345 344 345 345 344 344 343 342 341 340 338
344 345 342 341 341 338 338 336 334 333 331 327 325 324 322 322 321 317 314 317 323 325 325 327 330 330 333 332 329 334 336 336 339 340 342 344 342 344 343 341 341 339 335
341 343 344 341 344 341 338 337 336 332 331 329 328 325 322 319 318 318 316 316 316 320 324 326 326 328 329 330 329 334 333 333 333 333 337 336 340 340 342 342 340 339 336
337 339 342 342 343 339 339 339 334 332 331 328 327 325 324 322 323 321 319 315 315 319 320 324 328 328 330 330 332 335 334 330 329 329 329 332 335 337 339 339 340 339 336
339 340 342 342 341 342 337 335 333 331 331 329 327 326 323 324 325 322 318 316 313 314 318 319 325 327 328 331 335 333 330 329 326 325 325 326 330 333 334 335 334 333 332
340 341 341 341 341 337 335 333 331 330 330 327 326 326 324 324 325 325 323 321 316 311 312 318 318 327 330 332 334 332 329 327 326 323 323 324 327 327 328 328 328 327 328
342 341 341 338 335 335 333 331 329 330 328 327 327 326 325 325 326 325 323 322 320 317 313 318 320 324 329 332 334 330 328 326 323 322 323 323 323 323 324 323 323 325 325
342 341 338 334 333 333 331 329 327 329 327 326 327 326 325 325 325 324 323 323 322 320 316 320 322 324 327 328 329 327 326 325 323 322 323 321 320 319 320 320 321 322 322
339 336 335 332 334 334 333 328 328 328 327 325 325 325 325 329 323 324 321 322 322 322 319 316 322 320 323 328 328 328 327 327 326 322 320 318 318 316 316 317 317 317 317
332 333 331 330 332 333 328 328 329 327 327 326 325 324 323 324 323 325 324 321 322 326 320 318 318 320 323 326 323 323 323 322 324 323 318 317 316 316 316 315 315 314 313
330 330 329 331 331 330 328 329 329 328 327 325 325 323 321 322 321 324 325 322 324 322 319 317 318 317 320 321 321 318 317 320 319 322 321 320 317 316 315 314 315 314 312
330 329 328 327 329 330 330 331 330 327 323 322 322 321 321 322 319 319 325 323 323 320 318 316 317 317 317 318 316 317 316 316 317 318 317 318 319 318 316 315 318 316 312
328 326 326 327 324 324 309 315 327 325 324 322 320 319 321 320 318 315 316 317 321 320 316 316 315 317 316 316 317 316 316 315 311 320 316 315 319 316 314 316 313 310 309
329 328 326 324 321 315 304 308 317 326 324 322 320 320 322 324 321 321 312 315 315 315 316 317 317 317 316 317 317 316 317 314 312 316 317 312 316 313 315 314 309 308 308
328 328 328 323 318 313 303 305 309 325 324 324 322 322 321 322 321 322 320 322 322 319 318 319 318 319 319 319 319 318 315 314 316 316 317 309 315 313 315 316 307 307 306
324 324 326 322 317 312 304 305 314 324 323 323 323 322 322 323 310 306 322 317 314 312 306 307 307 304 303 306 314 316 314 314 311 311 314 312 313 313 315 314 313 306 305
326 327 326 324 315 313 304 304 316 324 320 320 318 318 306 314 301 308 321 316 314 313 313 313 311 306 310 308 309 318 317 313 311 310 314 312 312 313 309 313 313 308 305

GFSMA_sfc_thetae_066.txt.gz
Theta_e
332 331 331 329 332 332 335 332 334 336 337 337 337 336 335 335 337 338 338 348 348 347 349 345 344 343 343 345 349 348 348 346 344 344 344 344 342 344 343 342 341 339 335
333 330 329 328 330 332 334 333 332 332 333 335 334 335 335 335 337 338 338 343 346 346 346 345 343 342 342 343 346 348 347 347 346 344 344 342 339 343 344 342 342 341 339
334 331 329 328 329 331 331 332 330 329 330 332 332 333 334 336 338 337 337 338 341 345 345 345 346 344 343 342 345 347 347 347 347 345 343 342 343 344 344 342 341 341 340
335 333 331 330 330 331 330 332 331 328 328 329 330 332 333 335 337 335 335 335 335 337 342 344 345 345 345 343 343 345 347 346 346 345 343 343 343 342 344 343 343 341 339
337 336 334 333 330 331 331 331 331 330 327 327 331 332 332 337 334 334 332 333 332 335 333 341 343 343 345 344 343 345 346 346 344 345 343 344 343 342 342 343 341 341 339
340 337 337 334 334 329 331 330 328 329 328 330 330 330 331 333 331 330 331 335 332 334 334 333 334 337 343 343 343 345 344 345 344 345 344 343 343 343 341 341 340 339 339
342 337 337 337 336 333 331 332 329 327 326 326 325 324 325 328 328 329 330 329 330 332 333 333 332 332 335 340 341 344 343 344 344 344 344 342 343 343 342 341 339 338 340
343 341 338 338 337 336 333 331 331 327 325 326 322 319 316 319 322 326 327 328 325 329 330 331 331 331 331 331 332 341 342 343 343 344 344 342 343 343 342 342 341 340 340
345 343 342 340 338 336 334 332 331 327 325 326 326 322 317 313 315 320 323 325 325 325 326 328 329 331 331 332 333 335 341 342 342 343 344 343 343 344 343 341 341 341 342
345 344 341 340 338 337 334 333 333 327 326 325 325 327 323 319 314 312 318 321 323 324 324 325 327 330 331 330 333 334 335 340 342 343 345 344 344 344 343 342 342 341 341
343 344 341 339 338 336 335 336 331 329 327 325 322 322 321 321 319 315 312 315 320 323 323 324 326 328 329 330 328 331 334 337 338 337 341 344 345 345 342 342 341 341 341
339 341 341 339 339 337 336 335 333 334 330 326 325 323 320 318 316 316 314 314 314 318 322 323 325 327 328 330 332 333 332 331 330 332 333 336 341 342 342 341 341 341 340
335 337 338 338 337 338 338 335 336 333 328 326 326 324 322 321 320 318 316 313 313 316 318 321 323 327 327 329 327 331 333 329 327 327 328 332 335 337 339 339 340 339 338
339 339 338 338 339 340 336 335 334 332 328 326 325 324 322 322 322 320 317 314 311 312 315 316 321 324 325 327 329 333 330 327 326 324 324 327 329 331 334 335 336 335 335
339 339 338 337 339 337 336 332 330 329 328 326 325 324 322 322 322 322 319 318 314 309 310 315 317 323 327 330 330 331 329 327 326 322 322 324 325 328 328 329 329 329 328
340 338 337 338 336 337 334 330 327 327 326 325 325 323 322 322 322 322 321 320 318 314 310 315 317 322 327 330 333 330 328 326 323 321 323 324 322 324 324 324 324 324 325
338 338 339 336 334 333 330 327 326 327 327 324 324 324 323 323 323 323 321 320 318 317 314 318 320 322 325 327 329 326 325 325 323 321 322 322 320 321 321 320 321 322 323
339 340 338 334 333 333 329 326 326 327 326 324 324 324 323 326 322 322 320 320 319 318 317 316 315 322 325 327 328 325 325 327 325 322 319 319 318 317 318 318 317 318 316
337 337 334 331 330 330 329 328 328 326 325 324 323 322 322 323 320 321 321 320 320 322 317 319 315 319 324 325 323 323 322 322 324 321 318 318 318 317 317 316 315 314 312
334 332 330 329 330 329 329 327 326 325 324 323 323 322 321 321 320 319 321 323 322 319 318 316 315 318 320 321 322 319 318 320 320 323 321 319 318 317 316 315 315 315 311
331 329 327 328 329 328 326 325 326 326 323 321 320 319 319 320 320 319 323 322 322 318 316 313 313 317 317 318 318 318 316 316 317 318 318 319 320 319 316 315 318 316 310
326 325 325 325 325 325 313 314 325 325 323 320 317 317 319 320 317 314 314 316 321 319 316 313 312 317 317 316 318 317 316 315 312 319 317 315 320 317 317 319 314 310 308
322 322 322 324 323 319 305 308 314 324 321 319 317 317 321 322 320 321 311 313 314 313 315 316 315 318 317 318 318 317 318 310 313 316 317 312 316 314 315 313 309 307 307
322 323 322 320 319 311 301 306 309 322 320 319 321 320 318 321 320 320 319 321 321 319 318 318 317 317 319 320 320 320 315 315 316 316 317 310 314 312 315 314 307 307 305
327 325 323 318 315 310 301 303 315 321 323 322 320 322 322 320 306 305 319 318 315 313 304 305 306 305 304 305 313 318 315 314 311 311 314 313 313 313 313 314 313 305 304
323 324 320 317 311 312 301 304 315 323 322 319 317 316 304 314 301 302 315 316 315 312 312 312 311 306 309 308 307 319 318 314 311 310 314 312 312 313 310 314 315 310 306

GFSMA_sfc_thetae_069.txt.gz
Theta_e
331 330 331 330 330 330 331 330 331 334 334 335 336 335 334 333 333 335 336 344 347 349 348 348 347 346 344 345 349 349 348 347 345 344 345 344 344 344 342 342 342 340 340
331 330 328 328 328 331 331 331 330 331 332 333 334 335 333 333 333 334 336 337 345 348 346 343 342 346 343 344 346 347 348 347 345 345 343 344 344 344 343 342 341 339 338
330 328 326 325 328 330 329 330 328 328 328 330 331 331 331 332 334 337 338 335 339 346 346 343 344 343 344 343 344 345 348 347 346 344 342 343 342 343 343 341 342 341 340
332 329 327 327 327 327 328 329 327 325 326 327 327 329 330 330 333 336 337 333 334 337 343 345 345 345 344 344 343 344 347 345 346 345 342 342 341 341 343 344 342 342 340
334 333 330 330 327 327 327 328 327 327 324 324 327 328 328 329 332 338 334 332 332 334 332 339 343 342 343 344 344 343 345 346 346 346 345 342 342 342 343 341 341 340 340
336 334 333 331 328 327 327 327 327 327 326 326 328 328 327 329 330 331 328 332 331 332 331 333 334 336 342 343 343 344 345 344 346 345 345 343 343 342 341 342 342 337 332
338 335 334 331 331 327 329 329 327 326 325 325 323 322 323 326 328 331 327 328 328 331 330 331 331 331 334 341 342 344 343 343 344 344 343 342 343 343 341 341 340 338 336
340 337 335 334 333 331 327 328 328 324 324 325 321 319 315 320 320 324 324 326 326 328 329 331 330 330 330 331 333 339 340 342 344 343 344 341 343 344 342 340 341 338 337
341 340 335 335 335 335 331 329 329 327 323 323 327 325 318 317 313 318 320 322 323 323 325 327 329 330 329 328 332 333 339 341 343 344 345 343 343 343 343 341 340 338 338
342 341 339 337 336 336 333 332 331 327 325 327 327 328 325 322 314 312 317 319 321 322 322 324 326 327 329 328 333 334 334 338 342 343 344 343 342 343 343 342 341 340 339
342 342 340 338 337 336 334 333 330 327 326 324 324 321 320 319 317 314 312 314 318 320 322 323 324 324 328 329 328 330 334 334 337 339 340 341 344 343 344 343 341 341 341
340 341 340 338 337 336 334 334 334 331 327 325 323 321 320 318 316 315 312 313 312 315 320 322 322 324 327 328 331 332 331 330 331 332 333 336 340 342 344 343 341 340 341
335 338 338 337 337 336 335 337 334 330 330 326 324 322 320 319 318 317 315 312 311 314 316 319 321 324 326 327 328 332 333 328 327 327 328 330 334 339 340 340 339 341 341
337 338 338 338 337 337 336 337 332 330 328 326 324 323 322 320 320 319 317 313 309 310 313 315 319 322 322 324 327 331 327 327 325 323 324 325 329 332 333 335 335 335 336
338 338 338 338 337 337 336 335 330 328 326 325 324 323 320 320 320 320 317 316 313 308 308 314 315 321 323 325 328 327 326 326 326 322 321 323 325 327 329 328 330 330 330
337 337 337 336 336 335 336 334 331 327 326 323 323 322 320 320 320 320 319 317 315 312 308 313 315 323 327 326 331 327 326 326 323 320 321 322 321 323 324 325 325 326 326
337 338 337 336 335 334 333 331 329 326 325 323 322 322 322 321 320 320 319 318 316 315 311 319 322 323 321 325 326 324 326 324 322 321 322 322 319 320 321 322 322 322 323
338 338 337 335 335 335 332 329 327 326 325 323 323 322 321 323 320 320 319 318 317 316 315 315 319 322 323 326 325 325 325 325 324 322 320 318 318 317 319 317 317 318 318
337 338 336 334 334 332 328 325 326 325 324 323 323 322 321 320 319 319 319 317 319 320 317 315 317 322 323 324 321 322 322 322 322 321 317 317 317 317 317 317 316 315 313
337 335 335 334 332 330 328 326 326 324 324 323 322 321 320 320 320 319 319 318 318 317 317 315 318 319 320 322 322 319 317 320 320 322 320 318 318 318 318 316 316 315 310
335 335 332 330 328 327 328 326 324 323 322 321 320 320 319 319 320 318 319 319 319 318 318 316 313 317 317 318 318 317 315 316 317 319 319 320 321 321 318 316 319 316 310
331 330 328 327 324 325 309 312 321 322 323 323 317 316 316 317 316 315 314 316 320 319 317 314 310 317 317 317 318 317 316 316 313 319 317 315 320 317 318 320 315 311 308
326 324 323 323 322 320 305 308 313 324 321 318 316 315 317 321 319 320 311 311 312 312 315 317 313 314 318 318 319 317 314 311 313 316 317 312 317 313 316 315 309 309 306
323 321 320 321 318 313 302 304 307 320 318 317 315 318 319 320 320 320 318 321 321 320 319 319 318 316 316 320 321 320 315 315 316 315 317 310 314 312 315 315 307 306 305
320 319 319 316 314 312 300 301 314 319 318 317 317 318 319 320 308 305 321 320 317 314 305 305 306 304 302 305 313 317 315 314 311 312 315 313 313 312 314 313 312 306 305
321 321 319 318 310 311 300 301 315 324 321 320 318 315 303 314 300 301 319 318 315 313 313 313 313 307 308 308 307 320 318 314 312 311 313 312 313 313 310 314 314 313 310

GFSMA_sfc_thetae_072.txt.gz
Theta_e
330 331 333 333 333 334 334 334 334 337 337 338 338 338 337 337 337 336 337 341 345 347 348 348 345 343 344 345 347 350 348 347 346 346 344 345 344 342 343 343 342 342 341
331 330 330 331 330 332 333 333 332 333 335 336 336 337 338 337 336 336 337 340 342 345 347 349 347 340 341 341 344 347 348 346 346 346 343 343 343 340 343 342 342 342 341
331 330 329 328 330 330 332 332 332 332 332 333 334 335 336 336 335 337 339 342 341 343 345 349 346 343 343 341 343 345 347 347 346 346 343 342 344 343 345 343 342 340 340
332 330 328 327 328 329 330 331 330 329 330 330 330 332 334 334 335 337 339 340 339 339 341 347 346 344 344 344 344 344 346 347 346 345 343 343 343 342 343 343 342 341 340
334 331 330 329 328 328 329 330 329 330 327 328 329 331 332 333 334 337 338 339 338 339 340 339 344 343 342 342 342 344 346 347 345 345 344 343 343 342 342 341 341 341 338
335 333 332 331 329 328 328 328 329 329 329 329 329 331 332 332 334 335 337 338 337 337 338 338 338 339 342 342 342 342 344 346 346 346 345 343 343 343 342 340 339 338 337
336 334 333 331 330 329 329 329 329 329 328 329 329 329 329 331 332 334 335 334 334 335 336 336 337 337 339 340 340 342 342 344 344 345 344 342 343 343 343 342 341 338 333
338 335 334 332 332 330 329 329 330 327 329 329 327 324 323 327 328 328 331 331 332 333 334 335 335 335 336 337 338 340 340 340 343 344 344 342 343 344 344 342 341 339 337
340 338 336 335 333 333 329 330 330 329 327 327 330 328 322 321 323 326 327 328 330 330 332 333 334 334 335 335 334 338 339 339 339 343 344 342 343 343 344 343 340 340 338
340 340 337 336 336 335 333 331 331 331 331 327 329 330 328 326 322 320 325 325 326 328 329 331 332 333 334 334 334 335 335 337 339 341 343 343 342 343 343 343 341 340 337
338 340 338 337 336 336 336 335 332 332 332 330 330 326 326 325 323 322 321 323 325 326 329 330 331 331 332 333 334 335 333 334 336 337 338 342 343 343 343 342 341 339 339
337 340 340 339 339 338 336 335 335 334 332 331 328 329 329 325 323 322 320 321 320 324 326 329 329 330 332 333 332 331 331 330 330 331 333 337 341 342 344 343 342 342 340
335 339 339 339 338 339 338 337 336 334 332 330 329 328 328 327 325 325 323 320 320 321 324 326 328 329 331 332 335 334 333 328 326 326 328 330 335 338 340 342 342 341 340
337 340 340 340 340 339 338 338 336 336 332 332 329 329 328 326 326 326 324 322 317 318 320 323 326 328 330 331 331 331 334 327 324 323 324 325 328 332 334 336 337 336 337
337 339 340 339 339 339 339 338 336 333 333 330 330 329 328 326 326 326 324 324 323 316 317 321 323 327 329 330 331 334 333 327 326 322 322 322 324 327 328 329 329 330 330
338 338 339 339 338 339 338 337 335 332 331 329 329 327 326 326 326 326 324 323 322 321 318 320 322 325 329 331 333 332 331 327 323 321 319 320 320 322 324 324 325 327 328
338 338 339 338 338 336 336 335 334 331 329 328 328 327 326 326 326 326 325 324 323 322 319 322 324 326 326 327 326 327 328 326 326 320 320 320 318 319 321 321 323 324 324
339 339 339 338 336 335 335 334 331 331 328 327 326 327 326 326 326 326 325 324 324 323 322 319 322 324 324 327 325 325 326 326 327 322 319 318 317 318 318 319 318 318 318
338 339 338 337 335 335 334 333 331 329 329 328 327 326 326 326 325 325 325 324 324 323 323 320 320 324 324 325 323 324 324 323 323 321 317 316 316 317 316 316 316 315 313
337 338 337 337 336 335 333 329 329 328 328 328 327 327 326 325 325 325 325 325 324 323 322 320 320 321 322 323 322 319 317 320 320 322 320 319 317 317 317 316 317 315 311
338 337 336 335 334 333 330 328 328 329 327 326 325 325 325 324 321 322 325 325 323 322 321 320 320 320 319 320 318 319 319 319 319 322 320 322 322 322 320 318 320 316 311
336 335 334 333 331 331 310 313 323 327 326 325 323 323 323 319 316 312 312 315 322 322 319 318 317 317 320 319 318 318 318 319 317 321 319 317 323 320 322 327 315 310 308
333 332 331 331 328 326 306 308 312 327 326 326 323 321 321 322 320 321 311 311 313 312 315 319 318 320 320 320 320 319 320 319 316 318 319 313 318 317 323 319 309 308 307
330 330 329 328 325 318 304 303 308 326 324 323 322 321 322 323 322 322 319 321 323 320 320 321 322 322 325 325 324 323 319 317 318 317 321 311 316 313 317 319 307 306 305
327 326 325 322 321 315 299 300 316 324 322 321 321 321 322 322 308 304 320 321 319 316 305 304 305 306 304 306 315 319 317 317 313 315 317 317 314 313 316 316 315 305 304
324 323 320 321 312 313 298 301 315 323 321 320 320 318 305 315 300 301 323 320 317 315 315 316 315 309 308 309 308 322 321 316 315 314 317 317 315 315 312 317 315 314 313

GFSMA_sfc_thetae_075.txt.gz
Theta_e
347 346 345 344 342 343 342 341 340 341 340 341 339 339 337 338 339 338 338 340 342 344 347 348 349 347 344 344 347 347 347 345 347 346 344 344 345 344 343 344 344 343 341
345 341 342 340 340 340 339 339 339 339 338 338 338 339 339 339 340 341 339 340 342 344 346 347 350 348 344 344 343 344 347 347 346 346 346 343 344 344 342 343 344 342 340
344 342 339 338 338 340 341 340 340 340 338 338 338 339 340 341 342 343 343 343 344 344 346 347 349 350 344 344 343 340 346 347 347 347 345 343 343 343 341 343 342 342 341
343 341 338 337 339 339 338 338 338 337 337 337 337 338 340 342 343 344 344 345 345 346 346 344 348 347 347 345 345 342 345 346 346 344 344 344 344 343 341 343 343 341 341
341 340 337 338 340 337 338 338 338 338 337 337 337 338 340 341 343 342 344 346 347 346 347 346 342 345 346 346 345 343 342 345 345 346 345 344 344 343 343 343 343 341 340
340 341 338 340 341 337 339 339 341 340 339 338 336 336 340 342 343 344 345 345 346 348 348 348 346 343 343 344 345 343 342 341 344 345 345 344 343 342 342 342 341 339 340
340 341 337 342 343 340 342 342 341 340 338 339 336 336 339 343 344 343 344 345 345 346 345 344 344 344 343 342 343 343 342 342 345 345 345 343 343 344 343 342 340 338 339
339 341 343 344 343 342 343 342 341 338 339 339 335 336 331 335 338 341 342 343 344 343 341 343 344 345 344 344 343 341 341 341 343 345 344 343 343 344 344 343 341 340 336
341 343 344 346 346 344 342 343 342 341 337 337 340 337 330 328 332 337 338 339 342 341 341 342 343 344 344 344 341 340 340 342 341 342 344 344 343 344 344 342 341 340 338
345 346 348 349 348 345 346 344 343 342 341 335 336 339 339 337 329 328 334 337 339 337 340 339 340 342 343 343 341 339 337 338 340 341 342 342 342 342 343 343 342 340 340
349 348 350 349 348 347 347 346 343 341 339 339 338 337 335 333 331 330 325 330 335 336 337 338 339 341 341 341 341 339 334 334 335 337 339 342 343 343 343 343 343 341 341
348 351 351 349 349 349 347 346 344 341 341 342 340 338 335 330 332 332 330 333 332 334 336 338 338 339 340 339 337 335 332 331 331 332 334 337 340 342 344 343 342 342 342
344 350 351 349 347 348 348 347 345 343 343 342 343 336 340 339 339 337 334 332 328 333 334 337 338 339 339 339 339 333 332 329 327 327 328 331 335 338 340 342 343 342 341
346 352 350 349 349 347 347 347 345 345 346 344 340 343 340 339 338 337 334 331 326 328 331 332 338 339 338 339 339 332 336 328 326 323 324 326 330 333 335 337 338 338 337
346 348 349 348 348 347 348 349 346 347 346 344 342 343 340 338 338 338 337 334 328 322 324 330 332 332 338 338 337 338 339 329 327 322 322 323 325 327 329 330 331 331 331
347 346 347 348 348 349 350 350 348 348 345 339 338 341 340 339 339 337 335 334 332 328 323 332 333 331 333 334 336 339 339 329 325 322 321 321 321 323 325 325 325 327 329
347 345 347 348 348 349 350 349 348 346 342 337 341 340 339 340 336 335 335 334 332 330 326 328 328 331 330 331 332 332 332 336 334 320 321 319 318 319 320 321 322 324 325
345 345 347 347 348 349 349 347 346 343 336 335 336 339 337 335 337 337 335 335 333 333 330 329 326 327 328 328 331 329 329 332 337 323 320 317 317 317 318 319 319 319 319
344 345 346 347 347 347 347 347 345 342 336 335 338 338 336 337 336 334 334 334 334 333 332 329 327 328 327 327 326 327 326 328 328 322 317 316 316 317 318 318 317 316 314
344 345 346 346 347 346 345 345 342 337 336 337 338 338 336 336 336 335 335 335 335 332 331 329 327 325 325 326 328 323 323 325 324 326 322 321 319 316 316 316 316 316 312
344 345 345 347 347 346 342 342 340 337 338 337 338 337 338 333 326 329 334 335 334 331 330 328 324 323 323 322 324 323 320 320 323 325 326 327 327 325 322 317 321 318 312
344 345 345 345 345 342 312 316 330 338 337 336 335 335 335 323 321 313 312 314 327 332 330 325 325 323 324 323 321 322 321 320 318 325 323 321 326 324 325 326 316 311 309
343 344 345 344 344 342 308 310 315 338 337 337 336 334 332 331 326 330 313 311 312 313 316 332 323 322 324 324 322 319 321 324 322 322 324 319 323 321 326 321 310 308 307
341 341 342 344 343 337 308 306 311 338 337 337 336 335 334 332 330 328 328 327 329 325 324 325 323 324 330 331 326 324 324 322 323 322 329 317 318 317 322 325 307 307 305
338 340 340 335 333 326 303 302 319 336 335 334 333 333 332 331 308 305 327 327 325 320 307 305 307 309 307 310 321 327 324 322 319 319 324 324 317 316 319 321 319 306 304
336 332 332 334 323 326 298 303 320 333 332 330 331 328 307 321 300 301 329 326 322 318 319 318 316 311 312 314 308 329 327 322 320 316 325 324 320 318 315 319 321 321 314

GFSMA_sfc_thetae_078.txt.gz
Theta_e
350 349 348 345 344 345 343 344 342 341 342 341 340 338 336 337 338 336 337 346 344 344 345 349 351 351 350 348 347 348 348 348 348 347 346 346 345 345 345 344 343 342 341
351 346 347 345 342 342 340 341 341 341 341 341 341 341 339 338 339 342 343 344 344 344 344 347 350 352 350 347 346 346 346 347 347 347 346 345 345 346 344 342 343 342 342
352 350 343 342 340 343 344 343 343 343 341 342 342 341 340 341 342 346 346 343 344 344 345 346 348 351 350 348 345 344 345 347 347 347 347 346 344 344 344 342 344 342 342
351 349 342 341 343 342 341 341 341 342 343 343 344 343 342 344 346 348 348 347 347 347 347 349 348 348 352 350 346 346 344 345 346 346 347 346 344 344 344 343 343 343 342
347 347 341 342 347 341 341 342 343 345 345 345 344 344 344 344 346 346 348 349 350 349 348 348 346 346 349 350 347 345 344 343 346 346 346 346 345 344 343 343 344 342 341
345 345 342 343 343 339 339 344 347 348 347 347 345 343 344 344 346 347 348 349 349 350 351 351 349 345 345 346 347 346 345 343 342 346 346 345 344 344 343 343 343 342 341
346 346 341 343 342 343 344 350 349 348 347 348 344 343 343 345 346 345 347 347 347 349 350 350 349 346 345 344 344 347 344 344 342 340 344 344 343 344 343 344 343 342 341
346 345 347 343 346 341 349 351 351 346 347 349 342 341 336 339 344 346 346 346 347 347 346 347 346 347 347 345 346 343 344 344 343 343 344 343 343 344 344 343 342 341 341
348 348 348 346 349 350 347 352 352 350 344 347 348 342 333 331 339 341 344 341 345 343 343 344 345 346 347 346 344 344 343 343 343 343 343 342 344 344 344 343 342 340 340
350 349 351 352 351 351 356 353 352 351 350 345 345 344 346 343 332 332 338 340 343 343 345 341 342 344 345 345 346 343 340 340 342 342 344 343 344 343 344 344 342 341 340
354 351 352 352 354 352 357 356 353 354 350 347 342 340 343 341 342 335 330 332 338 340 340 340 341 341 344 344 343 342 336 337 338 338 340 341 342 344 345 344 344 342 340
353 355 352 355 357 358 356 354 355 354 352 350 345 346 340 338 336 335 332 331 332 338 340 340 340 340 342 342 342 337 335 333 332 333 334 337 338 342 344 344 343 342 341
345 355 360 359 356 358 357 356 356 355 352 347 350 345 344 342 341 339 334 330 330 333 335 338 339 341 342 341 341 334 334 331 329 329 330 332 336 339 341 343 344 344 342
345 358 361 358 359 357 356 356 353 351 350 348 350 350 343 342 344 341 334 331 327 329 332 336 338 339 340 340 339 334 339 329 327 325 326 328 331 334 336 338 338 339 336
344 351 355 357 357 356 354 357 350 351 351 352 352 351 346 345 343 341 337 336 331 324 325 335 332 341 340 340 338 340 341 329 328 324 323 324 326 329 330 331 332 332 331
348 347 354 356 355 354 354 354 353 354 353 351 350 349 349 346 345 341 339 337 335 330 325 332 333 338 338 339 335 340 338 331 328 324 322 323 322 324 325 326 327 327 329
345 344 350 353 353 351 353 355 357 353 351 350 349 346 347 347 342 338 338 336 334 333 327 334 337 334 335 337 336 339 339 341 336 322 322 321 319 319 321 322 323 324 326
343 341 348 349 348 350 354 354 352 350 349 348 346 346 344 343 343 342 338 339 336 337 331 332 332 331 333 335 333 333 337 339 338 323 321 318 317 317 317 318 319 320 320
342 343 346 347 347 349 352 353 351 350 349 347 346 345 344 343 340 338 338 336 335 335 335 331 331 331 332 330 328 330 332 334 335 323 317 317 316 316 317 316 317 317 315
339 343 346 347 347 349 351 351 351 350 348 347 346 346 342 340 340 339 338 337 337 335 334 332 332 328 329 329 330 325 327 329 327 330 325 324 319 317 316 316 318 317 313
340 344 346 347 348 349 348 350 350 348 347 345 346 342 342 337 329 332 336 338 339 334 334 328 329 326 327 326 326 326 325 327 326 330 329 331 330 334 326 318 321 319 313
343 345 346 346 348 346 316 320 339 347 345 342 340 339 340 328 326 317 315 315 325 337 334 331 332 328 328 328 330 327 323 321 319 327 327 326 331 328 330 330 317 313 310
352 352 351 349 349 350 312 312 319 346 342 340 339 339 337 335 331 335 314 311 312 312 315 336 332 332 331 327 328 326 327 322 322 323 327 322 328 327 328 324 311 310 308
352 352 351 351 350 340 309 310 314 342 341 341 340 340 339 338 336 334 334 332 333 332 331 331 332 333 331 329 331 330 326 327 327 326 330 320 323 322 327 323 308 308 306
351 351 350 350 347 332 306 307 322 340 339 338 339 339 338 337 311 306 332 330 330 329 310 305 308 309 306 309 322 326 321 322 322 322 330 325 320 318 322 322 318 306 304
348 345 346 347 331 335 301 306 321 334 335 335 338 338 308 325 302 302 332 331 325 326 323 319 319 314 312 317 309 334 326 323 322 319 330 327 321 318 316 321 322 321 321

GFSMA_sfc_thetae_081.txt.gz
Theta_e
357 354 355 348 348 347 346 347 345 346 344 344 342 341 339 339 338 337 338 350 348 346 345 349 350 350 350 350 349 348 348 349 348 349 347 346 346 344 344 345 343 343 341
360 351 351 347 345 343 342 342 345 345 345 344 344 344 343 342 340 342 337 343 347 347 346 345 348 351 351 351 348 348 348 348 348 348 347 346 346 345 344 344 344 344 342
361 360 347 347 345 347 347 346 345 347 344 345 347 345 345 344 341 343 343 347 345 346 346 346 346 351 352 349 349 346 346 346 348 348 347 347 346 345 346 344 344 343 343
359 360 347 344 345 346 342 344 341 342 343 344 347 346 347 348 346 347 347 349 345 345 346 347 348 350 351 350 350 346 345 346 346 347 347 347 346 345 345 344 344 343 343
352 353 346 346 355 342 343 342 343 346 346 347 346 347 350 347 348 345 348 352 352 349 348 347 349 349 349 350 349 348 348 345 345 346 347 347 346 345 344 344 344 343 343
349 353 347 350 349 342 342 343 350 350 348 347 345 347 351 349 348 347 348 348 350 351 351 349 349 347 347 349 347 347 349 347 345 345 346 346 345 346 344 344 343 343 343
350 354 346 347 349 345 344 351 349 350 347 352 345 345 345 352 351 347 347 350 349 352 352 352 349 348 345 347 346 346 347 346 344 344 344 344 344 345 345 343 343 343 342
349 349 349 348 346 342 353 347 356 347 348 350 343 342 336 342 347 347 347 349 352 347 347 349 349 351 348 345 344 345 346 346 346 343 343 343 344 344 345 344 343 342 342
354 353 353 348 349 348 341 354 358 357 344 347 356 343 334 332 338 347 350 346 349 344 343 344 345 346 349 346 347 345 345 345 346 345 344 344 344 344 344 344 343 342 341
355 353 352 353 355 349 347 357 359 357 355 343 348 349 352 346 335 333 342 345 344 344 350 342 348 345 347 344 346 345 343 343 344 344 344 343 343 344 345 344 343 342 341
356 355 357 355 356 351 355 359 360 360 353 346 346 345 348 344 346 337 331 337 341 340 343 343 342 342 348 345 349 344 339 339 339 340 341 341 343 344 344 345 344 343 341
341 352 355 356 357 359 357 361 364 363 357 355 350 349 344 340 338 337 334 337 336 341 342 346 343 340 345 343 343 338 337 335 335 335 336 339 339 342 344 345 344 343 342
339 335 342 356 358 358 361 361 363 363 360 354 360 348 348 346 344 341 337 335 331 338 338 341 340 346 348 344 341 339 336 333 331 330 330 333 335 337 341 343 344 343 343
339 344 346 358 359 358 362 364 360 358 359 355 358 354 349 347 347 342 339 336 327 330 334 342 339 338 347 343 340 335 338 331 329 327 327 328 330 332 335 338 339 339 339
337 347 353 362 361 360 363 365 356 358 359 358 353 354 351 348 344 345 342 337 329 323 330 337 333 343 342 344 340 341 340 329 329 325 324 326 326 329 330 331 332 333 333
343 345 350 353 361 362 363 364 358 360 356 352 352 356 355 347 349 346 343 336 334 331 326 334 336 341 341 339 337 340 339 332 328 325 324 323 323 325 326 326 327 329 329
340 339 347 351 356 360 362 361 359 355 352 355 356 354 352 355 347 344 341 336 334 334 328 337 337 339 337 338 339 339 341 342 335 324 324 322 320 320 322 322 324 325 326
339 342 346 342 352 356 359 358 353 351 353 354 353 351 346 346 350 351 339 346 341 344 332 335 339 334 335 338 339 337 336 341 340 324 321 319 317 316 316 319 319 319 319
340 342 341 343 348 354 356 356 353 354 355 353 350 348 348 348 347 347 342 341 337 338 341 332 335 333 334 335 333 332 334 336 334 324 319 318 317 316 316 315 315 315 314
338 340 342 341 346 350 351 353 353 355 354 351 353 351 347 346 345 344 342 342 341 338 338 336 334 333 331 333 331 328 328 331 331 334 325 323 319 317 316 315 316 316 313
341 340 342 344 348 350 349 353 354 354 354 352 351 347 351 343 334 337 339 341 341 335 337 335 332 331 329 328 328 329 328 327 327 331 332 333 333 332 323 316 321 318 314
341 340 339 343 348 348 321 323 344 354 352 349 347 346 345 333 328 321 318 316 329 338 336 335 336 332 331 329 330 330 326 323 321 329 331 330 334 334 332 328 316 311 311
342 342 341 345 349 353 312 314 321 354 351 350 348 345 341 338 333 337 315 313 313 312 318 337 335 335 333 332 333 332 329 329 325 327 328 323 330 328 334 328 310 310 309
340 342 344 350 353 350 310 311 318 353 350 349 347 343 343 340 336 335 334 333 334 334 333 331 334 336 336 329 330 331 329 328 325 326 329 320 324 323 327 330 308 308 306
340 343 348 351 353 337 308 311 327 349 345 344 341 341 340 340 316 311 335 333 333 333 310 306 307 307 306 307 320 326 323 323 321 323 326 324 321 320 323 321 317 307 305
340 345 348 353 337 340 305 310 328 341 340 337 341 336 309 328 303 308 334 333 330 331 329 328 328 318 317 317 309 330 325 321 321 323 329 325 323 321 318 322 320 314 312

GFSMA_sfc_thetae_084.txt.gz
Theta_e
352 359 353 355 352 351 350 349 346 348 345 344 343 342 340 340 340 339 338 351 349 349 349 348 349 350 353 352 350 349 349 349 349 348 347 347 346 346 345 345 344 343 342
361 355 357 352 350 350 348 349 348 347 345 342 344 345 343 343 343 341 338 342 348 348 349 349 349 351 353 352 351 349 346 347 348 347 348 347 346 346 346 345 345 344 343
360 359 354 351 350 350 351 347 346 347 346 346 345 345 346 345 344 343 342 340 344 347 348 349 349 350 352 352 352 350 347 346 346 347 345 347 346 346 345 346 346 344 343
357 357 353 351 350 351 349 345 343 341 343 343 343 346 347 346 345 346 343 344 345 344 345 348 347 348 350 351 349 351 348 346 344 344 346 346 346 345 345 345 345 344 342
356 353 352 349 354 348 345 346 343 343 343 345 346 348 349 348 349 345 343 346 348 345 343 346 347 347 348 350 349 351 349 346 344 344 347 347 346 346 345 345 344 344 343
350 354 350 353 352 346 342 345 343 342 342 347 345 344 350 349 349 346 346 348 346 348 347 347 345 345 348 349 349 349 350 348 345 345 345 346 346 346 345 344 343 343 343
348 351 349 346 353 346 343 346 342 343 346 350 346 344 345 350 346 347 348 347 346 347 348 348 346 345 346 347 346 347 347 349 347 345 343 343 345 346 345 344 344 342 342
349 351 347 346 347 344 345 345 345 341 345 349 344 342 335 340 345 346 345 344 345 349 346 346 345 345 344 342 341 345 347 348 347 345 343 341 343 345 345 344 343 343 342
347 346 346 346 346 342 340 344 347 345 341 347 349 342 335 331 339 344 343 342 345 344 342 342 345 345 345 343 343 344 345 344 346 347 344 343 343 344 344 344 343 343 342
352 348 344 347 344 345 342 342 347 345 348 344 347 347 346 345 335 333 343 343 343 343 342 343 342 339 343 344 346 346 342 342 344 346 344 344 344 344 344 344 343 343 342
347 352 351 347 347 345 344 347 343 347 350 346 345 346 345 343 345 337 330 335 339 341 339 343 340 343 342 339 341 341 341 339 340 341 342 342 343 344 344 344 344 343 342
337 337 351 349 348 348 349 349 348 353 350 348 347 345 345 339 337 337 334 332 332 335 340 341 340 338 340 340 340 339 338 336 334 334 336 337 339 341 343 344 344 343 342
334 336 343 351 351 350 350 353 348 353 350 347 344 347 349 345 343 339 337 333 332 333 336 340 340 338 340 338 340 339 337 333 331 330 331 333 335 337 340 341 344 343 343
328 336 340 338 349 350 353 352 352 351 349 349 349 351 349 347 346 342 340 335 329 329 334 334 338 338 339 336 337 336 333 331 329 327 326 328 330 332 334 337 339 339 339
332 331 332 344 343 347 341 334 333 344 348 350 352 350 351 348 346 345 343 339 333 322 324 332 331 339 337 339 336 335 336 329 328 325 324 325 325 327 329 331 332 333 333
332 332 332 336 338 353 345 337 338 348 349 349 352 351 349 347 348 345 343 339 337 330 324 332 334 337 338 339 335 334 335 329 327 325 323 323 322 323 325 326 327 329 330
331 331 331 330 334 347 352 354 351 350 349 350 351 348 348 349 346 344 342 341 334 333 328 330 336 337 333 333 334 334 335 334 331 324 324 322 320 320 322 323 324 325 326
333 332 331 331 330 337 348 352 351 352 350 349 348 348 348 349 347 345 343 339 334 335 333 327 333 331 331 332 333 332 333 339 335 325 321 319 317 315 317 319 319 319 319
330 333 332 332 332 333 334 349 352 351 349 349 349 349 348 345 344 342 341 338 336 336 334 332 329 332 330 332 329 328 330 330 331 324 319 319 317 316 315 314 313 314 312
326 328 333 334 334 336 335 344 351 350 349 348 350 350 347 344 344 342 340 338 337 334 333 330 329 329 328 329 329 324 326 328 328 331 323 322 319 318 317 315 316 315 310
325 326 329 335 336 336 337 344 349 349 348 347 349 348 346 343 336 340 339 338 336 333 332 329 327 327 326 325 324 325 326 323 325 328 329 326 323 323 319 315 321 318 311
324 326 327 332 333 337 320 318 341 349 347 346 347 347 341 327 321 316 316 317 333 334 331 328 327 325 326 326 328 326 324 321 317 328 327 327 330 329 324 325 317 311 309
319 324 326 329 335 338 317 311 321 348 346 346 345 342 337 336 329 326 314 316 313 315 322 331 327 327 326 328 326 326 323 322 322 324 326 321 327 324 329 321 310 308 308
314 316 324 328 334 337 315 307 316 346 345 345 345 344 339 336 336 334 330 330 330 326 325 327 330 330 331 331 330 326 325 324 323 325 327 318 323 321 326 322 307 307 306
311 313 319 327 333 336 307 307 322 344 343 343 344 342 340 336 315 313 332 329 329 323 308 306 307 304 303 305 320 326 323 320 317 319 324 319 319 319 321 320 316 306 304
311 312 315 326 328 337 304 306 329 343 340 340 339 334 317 332 305 309 332 331 328 328 326 324 323 317 313 314 309 326 324 320 318 318 324 320 319 319 316 320 318 312 310

GFSMA_sfc_thetae_087.txt.gz
Theta_e
340 343 343 343 343 344 344 342 341 338 338 337 335 335 333 333 333 333 336 351 349 350 353 350 349 350 352 353 351 349 348 347 347 347 348 347 347 346 346 346 345 344 344
345 342 345 343 344 344 346 344 342 339 339 338 338 337 337 336 336 335 334 343 348 348 350 353 352 351 350 352 352 350 348 347 347 345 347 347 346 346 346 345 345 344 343
346 348 346 342 341 341 338 339 338 339 339 339 336 336 338 338 337 337 336 334 342 348 348 350 352 353 353 352 353 350 348 347 346 344 346 346 346 345 345 345 345 344 343
349 347 345 343 342 340 339 336 332 331 333 333 332 334 337 337 339 338 337 336 335 340 346 349 349 350 351 352 353 351 348 346 345 344 344 346 346 346 345 346 344 344 343
351 347 345 343 342 340 337 335 334 332 331 332 336 337 339 339 339 340 339 336 337 341 339 344 348 347 348 350 351 351 348 346 345 344 344 344 347 346 345 345 344 344 343
351 347 344 343 341 340 336 333 333 335 332 332 339 339 338 340 340 340 339 340 340 342 341 341 344 344 346 348 349 349 349 347 345 344 344 343 346 346 345 345 344 344 343
345 346 343 341 342 341 335 333 335 333 332 337 336 335 337 339 341 340 340 339 341 341 343 344 342 342 343 346 347 348 350 349 346 345 342 341 343 346 345 344 344 342 342
341 341 343 341 339 339 337 337 336 332 334 340 337 332 329 331 336 339 339 339 340 342 343 344 342 342 341 341 342 346 349 349 346 346 343 341 341 345 346 345 344 342 342
345 342 343 341 340 339 336 335 336 334 330 337 341 335 327 325 331 337 338 338 337 339 340 340 342 341 343 339 341 343 345 346 347 345 345 342 341 343 345 344 343 342 342
343 342 340 342 340 340 337 335 339 338 338 332 337 343 339 337 329 328 336 337 337 339 336 336 338 340 339 338 341 342 341 342 344 345 345 344 343 343 344 344 344 343 342
338 348 342 339 340 339 340 339 338 339 340 339 337 336 336 334 336 333 329 330 333 335 335 335 335 335 335 337 337 339 340 339 339 339 341 343 343 343 343 344 344 343 342
329 332 339 344 341 342 340 339 342 340 341 342 343 340 332 333 331 333 332 328 327 330 334 335 335 333 334 334 340 339 337 335 333 333 335 337 339 339 342 343 343 343 343
322 328 333 332 338 343 344 343 342 343 344 345 345 339 340 339 338 337 333 330 327 328 330 334 335 334 333 334 334 337 336 332 330 329 330 331 334 336 338 341 342 343 342
326 325 331 335 337 346 346 345 346 344 346 346 340 340 340 342 342 339 333 330 322 322 326 327 332 333 333 333 334 335 332 329 327 326 326 326 329 331 333 335 338 339 339
329 326 327 328 331 336 343 347 346 346 345 343 344 343 338 337 341 342 336 333 325 317 317 327 324 331 331 332 331 330 331 329 327 324 323 323 325 327 328 330 331 332 333
325 327 327 327 328 331 338 340 342 336 340 343 344 333 332 330 337 343 337 334 330 324 317 324 327 330 332 334 333 331 332 328 325 323 323 322 321 322 324 325 326 329 329
325 326 327 327 327 325 326 338 340 336 338 342 344 338 334 332 334 342 336 333 330 325 320 323 328 328 327 329 328 330 330 329 328 323 323 321 319 319 320 322 323 325 326
326 327 329 328 328 328 326 328 335 346 344 344 344 344 343 346 342 341 336 332 329 326 324 320 324 325 324 326 328 326 330 334 330 325 321 320 317 316 316 318 319 320 319
320 323 324 325 327 329 328 326 328 335 346 343 344 346 345 343 342 339 334 332 330 330 326 324 322 324 324 325 323 323 324 325 327 323 319 319 317 316 314 314 314 313 312
319 319 321 323 324 325 330 329 329 326 335 347 345 346 344 343 344 340 334 331 329 327 325 323 322 321 321 322 322 319 319 324 327 328 322 319 318 317 316 316 316 315 310
316 316 318 321 322 323 326 331 329 330 329 342 345 346 345 340 334 336 336 331 329 324 323 321 320 320 320 319 318 319 319 323 324 326 323 319 319 319 319 316 319 318 311
311 312 313 314 319 323 314 312 319 330 335 345 342 344 344 328 327 322 323 324 329 326 323 321 320 318 319 320 320 319 318 319 316 323 326 325 323 320 320 319 317 313 309
309 310 311 313 315 319 310 309 312 323 330 341 342 342 336 335 327 327 316 314 317 319 324 324 321 320 320 322 320 319 317 315 317 322 325 321 325 324 325 322 311 309 307
307 308 309 310 311 313 308 307 309 322 330 340 341 339 336 327 327 326 325 325 323 322 321 326 324 323 323 324 322 323 320 320 320 323 323 317 322 321 324 320 307 306 304
306 306 308 309 309 310 304 305 310 323 330 338 340 338 333 330 312 311 327 324 321 316 307 306 306 305 301 304 316 322 320 319 316 319 323 319 319 319 321 320 315 306 304
306 307 307 308 307 308 304 303 309 323 330 337 336 335 317 328 307 310 326 324 320 317 317 315 314 312 310 311 307 320 320 316 316 316 321 319 318 318 316 320 318 313 310

GFSMA_sfc_thetae_093.txt.gz
Theta_e
338 335 337 336 336 338 340 339 339 338 337 338 336 334 332 331 330 331 330 341 346 351 354 356 354 352 351 351 352 352 350 348 347 346 347 346 345 346 345 346 345 345 345
336 334 333 334 336 338 339 339 338 337 336 335 335 335 334 332 331 330 331 331 343 350 352 354 354 353 351 350 351 352 349 347 347 346 346 346 345 345 344 344 345 345 345
338 334 333 335 336 338 339 340 340 339 336 336 335 335 334 334 333 333 333 332 336 350 350 352 354 355 353 352 349 349 348 347 346 345 345 344 345 345 346 345 345 344 345
342 338 335 335 338 339 339 337 337 334 334 334 334 334 333 333 333 334 335 334 333 337 347 351 351 352 353 353 352 348 348 346 345 344 344 344 343 344 345 345 345 344 343
344 343 342 342 339 338 336 335 333 330 328 328 329 329 329 330 332 335 335 335 334 334 334 342 349 349 350 351 352 351 349 347 345 344 344 344 344 344 344 345 345 344 343
346 343 341 341 342 339 338 335 332 331 330 328 330 330 331 332 333 335 336 337 336 335 335 335 336 342 348 350 351 351 350 347 346 346 344 342 342 344 344 344 344 344 343
345 345 344 343 341 339 337 336 333 331 329 330 329 328 332 333 333 334 336 336 336 337 335 335 335 337 339 346 347 349 349 349 347 346 344 341 341 343 343 343 344 344 343
338 341 343 342 341 339 337 336 333 330 329 330 326 327 323 328 330 334 335 335 335 338 338 338 339 339 339 338 339 345 348 349 348 347 344 341 341 342 343 343 344 344 343
335 332 333 339 343 339 339 334 334 332 329 330 332 324 320 321 327 331 335 336 336 337 336 338 339 341 341 339 340 341 346 346 348 349 344 343 342 343 343 343 342 344 343
339 335 335 339 342 340 338 335 335 334 331 328 330 334 331 330 327 326 331 333 334 336 335 335 338 338 341 339 341 341 339 341 346 346 345 344 343 344 344 343 342 343 343
325 329 337 339 339 338 337 336 334 333 332 330 330 330 331 332 332 331 329 328 332 333 335 336 336 336 338 338 337 337 338 337 338 340 340 342 343 344 344 343 342 343 343
322 324 327 335 338 337 337 337 335 333 333 333 334 333 331 328 325 327 327 325 327 330 333 333 334 336 335 334 338 337 334 333 331 331 334 336 339 341 343 343 343 341 343
317 318 320 323 329 337 338 338 336 335 335 334 334 335 334 335 333 329 327 324 325 329 330 332 333 334 334 333 333 336 336 330 328 327 328 329 332 336 339 341 341 341 342
318 321 320 321 323 329 334 337 335 336 336 335 335 337 338 339 338 335 332 326 322 320 324 327 330 332 332 332 333 334 333 329 327 325 324 325 327 329 332 334 335 336 337
319 319 321 322 324 327 330 332 334 334 337 337 337 337 337 340 340 339 335 331 327 317 320 325 327 329 330 331 332 332 331 329 327 324 322 321 322 324 326 327 328 329 331
316 318 319 320 321 323 325 326 327 331 332 332 336 337 338 339 339 339 338 334 329 323 320 324 325 327 328 331 332 330 329 328 325 323 322 321 320 321 322 323 324 325 328
315 316 318 319 320 321 321 321 323 324 326 328 330 332 335 338 335 334 336 335 331 330 325 329 324 326 326 326 328 326 329 329 326 322 322 321 318 318 319 320 320 322 324
315 317 318 319 321 322 322 322 322 324 326 326 331 333 332 336 334 333 331 330 333 333 330 327 325 325 324 324 323 324 327 330 328 326 320 319 317 315 314 315 316 317 318
315 315 317 319 321 322 323 322 323 324 325 326 326 328 332 333 332 333 333 331 332 333 332 327 325 323 322 322 321 322 323 323 325 325 319 317 315 315 314 313 312 312 311
314 314 315 318 320 319 318 319 319 319 319 322 327 327 328 333 334 332 332 334 335 333 330 326 323 321 320 321 321 319 318 319 320 325 322 318 318 317 315 314 314 314 312
313 314 315 316 317 318 319 317 317 315 315 319 324 326 327 328 328 328 331 330 334 331 327 325 321 319 317 320 320 317 317 315 317 319 318 319 319 319 318 315 317 317 313
312 313 314 314 314 316 308 307 310 311 314 316 319 322 325 323 325 319 318 316 328 331 326 325 322 318 317 319 317 316 315 313 312 318 319 318 321 319 320 320 316 314 311
309 309 310 311 311 310 303 303 305 310 310 311 315 319 323 327 323 335 324 314 314 313 320 326 323 320 320 320 318 314 314 314 313 314 319 315 321 318 319 318 311 310 308
307 307 308 309 309 309 303 301 303 307 307 308 312 318 322 324 325 328 335 329 328 326 324 325 326 326 324 322 322 320 317 315 317 319 319 314 319 322 324 322 310 308 305
308 308 308 308 307 308 302 301 302 305 306 306 310 312 315 319 314 306 332 329 327 321 307 311 311 308 305 305 314 319 316 317 317 319 322 315 318 319 321 320 318 307 304
308 309 309 309 307 308 300 299 301 306 303 304 305 309 307 311 307 306 325 329 323 320 317 315 314 307 309 308 306 319 319 319 317 315 320 319 318 318 315 319 319 314 312